GFSFLT2_sfc_thetae_000.txt.gz
Theta_e
316 317 317 312 308 313 306 307 303 306 312 318 324 324 326 331 335 338 337 339 342 346 347 347 343 344 345 347 346 343 341 345
314 316 315 315 317 307 308 300 299 304 305 309 315 318 325 327 332 338 336 338 341 343 345 343 342 344 345 346 345 343 342 343
314 312 311 311 311 312 312 308 302 301 306 317 316 318 320 328 333 338 335 336 340 343 345 341 342 342 343 343 343 342 342 341
309 315 317 316 313 313 307 307 308 306 305 319 319 320 322 325 333 337 339 334 335 342 344 339 340 338 339 340 339 339 340 339
307 312 314 312 315 315 314 313 308 304 307 322 321 323 326 326 332 337 340 337 334 338 339 338 339 339 338 338 335 335 337 337
304 308 312 310 312 314 313 308 309 309 311 315 319 321 323 327 332 335 338 338 336 336 337 339 339 341 340 338 335 335 335 335
312 312 312 311 312 312 312 312 309 310 311 316 319 320 324 325 327 333 334 336 337 336 336 339 340 341 340 338 338 338 336 336
310 312 311 309 312 313 313 313 313 312 311 317 319 321 319 321 325 328 332 334 336 337 337 338 339 339 337 338 336 339 338 336
307 312 311 307 312 313 314 315 314 309 314 318 316 318 320 324 326 327 330 334 335 336 338 339 338 336 335 336 337 338 339 338
308 312 301 312 318 317 314 315 316 315 316 317 318 322 327 328 327 327 329 333 335 336 338 338 335 332 336 334 337 339 339 338
307 307 310 311 313 313 312 313 318 316 316 317 320 325 324 327 328 329 332 336 337 338 337 336 334 334 335 336 336 336 336 337
309 303 301 312 317 320 319 308 317 317 316 317 321 314 321 331 329 332 334 337 337 337 335 334 336 334 335 335 336 334 335 336
307 306 308 317 317 319 306 310 319 318 318 319 320 322 329 332 332 333 335 336 337 336 333 335 338 338 336 335 334 336 336 334
309 306 303 319 316 311 321 323 321 322 322 323 327 329 330 332 333 333 333 333 335 334 334 337 340 341 339 338 343 340 338 337
312 312 321 320 320 322 323 323 325 326 327 328 328 328 329 331 332 332 333 333 334 334 337 339 341 341 339 343 343 341 341 339
312 317 316 317 320 322 324 324 326 326 326 328 329 328 328 331 331 332 333 333 334 334 333 335 338 339 341 342 342 339 336 335
313 316 316 318 320 320 321 323 323 325 326 328 329 327 327 327 328 329 331 331 332 333 333 334 337 337 337 337 336 334 333 333
308 313 314 315 316 319 319 321 322 324 325 327 326 324 324 325 328 329 331 331 332 333 333 331 332 333 335 337 336 336 332 330
313 313 314 315 316 319 318 320 321 323 323 322 323 324 324 326 330 323 331 331 331 330 330 331 331 331 332 334 335 334 332 329

GFSFLT2_sfc_thetae_003.txt.gz
Theta_e
317 318 317 313 309 315 308 309 306 309 312 317 322 321 324 326 329 335 337 339 339 342 348 347 349 347 346 350 352 347 343 349
316 318 318 316 317 308 309 301 301 306 307 309 317 318 321 323 326 332 338 340 340 341 347 347 348 345 344 347 348 346 345 346
315 313 312 312 312 313 313 311 304 302 307 318 317 319 319 322 325 331 337 340 339 342 346 347 346 343 340 344 345 345 344 344
311 316 317 316 313 313 307 308 309 308 307 319 319 320 321 322 325 331 339 342 340 342 344 345 342 341 339 339 340 342 342 342
308 313 315 312 314 315 314 313 310 306 308 322 321 321 323 324 325 331 338 342 341 342 343 345 341 344 338 337 337 338 340 340
304 309 314 310 311 314 313 309 310 310 312 318 320 321 323 325 328 330 336 341 341 340 343 347 344 346 340 337 337 336 337 336
312 312 313 312 311 312 312 313 309 312 311 317 319 320 323 323 325 328 333 338 342 338 342 349 345 347 342 338 339 338 337 337
310 313 312 310 312 313 313 313 313 313 313 321 321 322 321 322 322 324 328 335 340 341 340 344 343 341 340 338 338 340 339 338
308 312 312 307 311 312 314 316 315 311 316 321 319 320 321 323 324 325 326 332 337 341 344 346 342 345 339 338 340 339 340 340
309 311 302 312 317 317 314 316 318 318 319 319 320 321 324 327 327 328 329 329 336 339 342 343 343 341 340 338 342 341 340 340
307 306 311 313 316 315 314 314 319 318 320 320 320 322 322 327 329 331 333 335 337 340 342 345 342 341 340 337 338 338 339 340
311 304 301 312 317 320 320 310 320 321 320 318 320 314 323 330 331 333 335 338 339 341 342 342 341 334 338 337 338 338 340 339
307 306 309 317 320 322 309 313 322 321 320 319 319 322 329 331 333 336 338 340 342 342 340 346 342 341 342 340 339 341 339 339
308 306 303 320 319 313 323 324 324 323 323 322 324 325 327 331 333 335 337 339 340 339 339 340 344 346 344 347 349 346 345 341
314 310 325 324 323 325 325 324 323 324 324 325 324 323 326 329 334 335 337 338 339 338 340 342 343 344 343 349 348 345 346 346
316 319 320 319 323 324 325 324 325 326 326 327 325 327 329 332 335 335 337 336 337 337 337 339 343 344 346 346 347 345 345 342
315 319 319 321 321 321 323 325 325 327 328 328 328 328 331 333 336 336 337 337 338 336 336 337 340 341 342 344 345 342 339 337
312 317 317 319 319 321 321 323 325 326 328 330 332 332 333 333 334 334 335 334 337 336 333 337 338 339 339 341 340 338 335 333
315 315 315 317 318 318 318 319 323 325 326 326 328 330 329 331 333 329 332 332 330 331 333 335 336 336 337 338 337 336 333 331

GFSFLT2_sfc_thetae_006.txt.gz
Theta_e
316 317 316 312 309 314 308 309 305 308 313 317 320 319 320 323 324 330 331 334 338 342 343 348 350 353 354 354 355 353 351 356
315 317 317 314 316 307 308 302 301 305 307 308 318 318 320 320 321 327 334 335 337 339 344 350 351 353 352 354 355 351 351 351
314 312 310 312 311 312 311 309 303 301 305 319 322 321 319 321 323 325 327 334 340 341 346 351 349 350 348 350 352 349 349 351
310 316 317 315 313 313 307 308 310 309 306 320 320 320 320 322 323 327 331 335 342 342 347 349 348 347 345 344 346 347 348 351
308 312 315 311 313 313 313 312 311 305 308 324 321 321 323 322 325 334 336 342 345 343 343 347 348 347 343 341 341 343 346 343
303 309 313 310 311 312 311 308 308 309 313 317 319 322 327 326 329 330 338 338 344 345 345 347 348 346 344 340 339 340 340 342
311 311 311 311 311 311 310 312 308 311 313 319 319 322 323 325 326 328 334 337 344 343 345 348 348 346 346 341 344 343 343 344
308 311 311 309 311 312 312 311 311 312 314 320 324 326 323 322 323 327 330 331 338 345 344 349 348 346 343 342 344 348 337 342
306 310 310 306 310 311 312 314 313 311 318 323 321 321 321 324 324 327 330 332 335 343 343 351 347 346 342 344 345 345 344 344
307 312 301 311 317 315 313 315 316 317 319 322 321 322 324 327 328 326 331 332 335 339 345 350 347 345 346 343 343 345 344 344
308 305 309 312 315 315 313 315 320 318 320 323 322 321 326 329 328 329 334 340 341 337 342 349 346 346 346 340 341 342 342 343
311 304 301 314 318 321 319 309 320 320 320 320 321 313 323 333 330 331 333 339 342 344 346 348 347 346 343 339 341 339 341 343
307 305 308 317 319 320 306 307 319 323 322 322 322 325 334 334 332 334 336 339 343 347 347 349 348 344 339 339 340 343 344 345
310 306 304 321 318 313 326 327 324 323 326 326 325 326 327 329 336 335 338 340 343 347 347 349 350 348 340 341 348 353 349 347
313 311 319 324 324 327 326 328 324 326 324 325 323 323 325 328 332 336 338 340 343 345 349 349 348 353 350 353 356 354 354 352
313 315 315 322 322 323 324 323 322 323 323 324 323 324 328 330 334 338 332 340 342 345 345 346 353 352 352 351 353 350 351 351
316 314 321 320 320 322 322 324 323 324 323 323 325 327 331 332 341 332 342 335 336 335 333 331 332 333 336 340 342 345 347 348
309 316 318 316 319 320 319 320 323 323 322 324 327 331 335 340 336 338 338 338 334 337 335 328 331 335 339 337 343 343 341 338
313 315 315 317 318 319 316 318 319 320 323 324 326 329 334 331 340 331 337 335 328 329 328 328 327 338 343 343 339 341 338 337

GFSFLT2_sfc_thetae_009.txt.gz
Theta_e
312 312 309 304 300 305 298 301 296 301 306 314 319 319 323 324 323 323 324 329 332 334 335 341 345 350 348 345 344 341 339 336
311 311 311 307 309 299 297 292 291 298 304 303 308 311 314 322 321 323 324 330 332 334 337 341 347 348 347 346 343 343 340 339
309 304 303 304 302 303 301 299 293 294 299 311 313 313 312 313 319 322 325 327 332 337 338 342 347 347 345 345 344 341 341 339
304 309 312 307 304 304 298 296 299 299 302 316 316 315 315 317 319 319 323 327 332 334 336 342 344 344 344 345 343 340 340 340
302 306 309 306 306 304 305 300 296 298 301 316 315 313 316 316 319 321 321 330 331 328 333 342 342 341 342 343 342 339 338 339
297 303 306 303 307 306 301 296 297 300 306 310 313 317 318 318 317 323 324 334 333 338 340 341 342 339 338 339 340 338 339 338
304 307 307 308 308 306 302 301 300 302 308 309 312 315 316 317 317 317 321 327 334 335 341 340 340 338 338 336 337 338 336 335
301 308 307 305 308 309 309 307 304 305 307 315 317 317 317 317 317 317 318 319 328 337 338 340 340 338 337 334 334 335 334 334
296 303 304 300 305 306 308 310 308 302 309 316 315 316 316 316 317 317 319 320 319 323 337 340 342 340 336 334 335 334 333 334
297 301 293 303 311 312 311 313 313 312 315 316 316 316 316 317 316 318 319 321 321 325 339 342 341 338 337 337 333 332 332 333
298 296 300 307 310 311 309 308 315 313 316 317 317 320 319 323 321 320 324 325 326 327 340 342 339 338 336 334 332 333 332 333
301 296 296 304 314 318 316 304 316 316 316 318 314 312 315 322 325 325 326 327 327 329 339 340 339 337 334 332 332 332 333 334
300 300 303 313 318 318 302 304 317 316 315 316 314 318 323 325 324 326 325 328 332 333 338 338 339 337 332 331 330 333 333 335
302 299 297 318 318 310 313 317 320 321 319 318 317 318 319 320 325 326 325 330 332 337 338 339 338 335 330 329 333 335 335 335
310 309 316 318 314 318 318 316 317 317 318 319 318 319 319 318 316 323 328 331 335 338 336 334 335 334 326 320 319 330 337 336
310 312 314 318 317 318 319 320 320 320 318 318 316 319 318 321 321 327 331 330 329 327 323 322 324 324 324 324 324 322 326 336
309 313 316 315 317 318 320 320 320 322 320 320 320 322 323 321 328 329 329 329 330 326 326 324 324 324 324 325 325 322 321 324
303 314 313 313 316 316 315 315 316 315 318 321 321 323 329 331 329 326 326 329 327 323 323 323 325 325 325 322 323 321 321 328
310 317 314 315 317 314 313 314 314 313 314 315 318 321 326 329 330 326 325 326 327 326 326 325 324 323 326 325 325 328 329 324

GFSFLT2_sfc_thetae_012.txt.gz
Theta_e
308 309 305 300 297 301 295 296 293 296 302 310 315 318 320 320 326 326 329 331 332 335 336 341 345 346 349 346 342 338 334 330
307 306 306 304 304 296 293 289 288 294 298 300 310 314 317 318 320 321 328 331 332 334 336 341 345 348 350 346 342 337 334 331
302 300 301 301 298 297 297 294 291 289 296 307 309 316 317 320 322 320 322 329 332 334 336 341 344 348 348 345 341 336 336 333
299 305 307 303 301 299 294 292 294 295 297 310 312 315 319 320 322 321 322 326 330 332 334 339 342 347 346 344 340 338 337 335
295 298 301 302 302 300 297 295 294 293 296 311 310 311 313 314 315 319 322 328 330 331 332 337 341 345 344 343 340 339 337 335
294 295 300 298 302 302 300 294 294 296 301 307 309 311 312 314 316 318 322 326 329 329 332 337 341 343 343 342 341 338 338 335
299 304 305 304 305 302 298 298 298 298 304 307 311 313 314 314 316 319 319 325 325 328 327 335 340 341 342 342 340 338 336 336
300 304 305 303 305 306 305 304 304 304 304 310 314 313 312 315 315 314 316 324 328 330 329 328 339 339 340 340 339 337 334 335
295 301 302 299 302 303 306 309 307 302 306 312 311 312 312 312 313 314 316 317 318 331 335 336 339 340 337 337 337 336 335 335
296 295 292 300 309 312 310 310 310 309 311 314 314 314 315 313 313 314 315 317 316 318 327 339 341 339 338 333 336 335 332 332
293 293 296 303 308 310 306 306 313 310 314 314 315 315 314 316 315 315 316 317 319 321 324 336 340 339 335 333 334 333 331 331
300 295 291 301 313 317 313 302 313 314 313 313 313 306 310 317 320 321 322 322 324 323 331 336 335 336 333 331 330 329 331 332
297 295 298 310 314 315 299 301 313 313 314 314 313 313 317 320 319 321 322 324 325 330 334 333 335 335 331 330 329 330 331 332
298 296 295 313 312 307 310 311 315 316 316 317 316 319 318 318 320 321 323 324 330 332 331 332 332 331 327 324 329 330 331 333
304 302 311 315 311 313 314 311 314 314 315 316 316 316 318 318 319 318 322 332 330 325 326 330 328 326 322 320 325 325 323 321
308 311 314 316 319 319 318 316 317 318 318 318 316 319 320 319 320 328 326 324 324 324 324 323 324 324 321 323 325 324 324 324
308 313 313 314 314 315 317 316 317 318 317 318 318 322 328 326 326 326 327 326 325 324 323 321 323 323 323 323 323 322 322 321
303 312 311 311 314 315 312 312 312 311 311 313 316 317 329 328 326 325 326 323 321 321 322 321 323 321 322 323 322 322 321 320
308 314 313 315 315 312 309 311 311 310 309 308 310 313 318 326 324 321 323 322 320 321 323 325 322 322 322 324 323 319 319 318

GFSFLT2_sfc_thetae_015.txt.gz
Theta_e
304 305 304 298 294 298 291 291 290 293 298 305 313 312 320 322 320 324 327 333 336 338 339 339 341 343 346 345 345 343 337 329
304 304 303 302 301 293 291 287 287 291 294 297 303 310 315 318 317 323 327 330 334 337 337 340 343 344 346 348 345 342 332 330
299 298 299 298 294 293 294 291 289 288 293 303 306 311 314 317 320 323 326 329 331 335 336 338 343 344 345 347 344 336 336 330
296 300 302 299 298 297 294 290 290 291 294 307 310 313 316 317 320 324 327 328 330 332 334 334 339 342 344 346 343 339 336 331
291 293 297 297 298 295 294 293 292 292 295 308 308 310 316 317 318 319 322 326 329 330 332 333 336 340 344 345 343 339 336 331
293 293 297 296 299 299 297 292 292 294 298 305 307 308 311 314 316 319 320 323 326 329 331 332 334 338 344 345 344 339 335 332
299 300 300 300 301 300 298 299 298 299 300 305 307 309 311 315 315 317 319 321 325 327 328 330 332 337 344 345 342 340 335 333
294 299 300 299 301 302 302 299 299 298 301 307 311 309 310 314 315 316 317 322 325 326 326 328 332 337 342 343 342 340 336 333
294 296 298 294 300 300 302 304 304 300 303 308 308 310 311 311 314 317 318 321 323 323 324 324 331 338 339 341 342 338 336 334
295 294 290 299 306 306 307 309 310 308 305 311 312 314 312 311 312 312 314 317 321 325 328 329 327 336 338 340 339 337 332 334
292 292 297 304 308 308 304 304 311 309 310 313 314 313 311 314 313 313 314 313 314 318 325 329 333 334 335 334 336 335 332 333
294 291 291 304 310 315 311 299 312 313 311 312 312 308 308 315 315 316 317 319 319 320 325 330 332 334 333 331 333 333 333 332
295 295 299 308 312 314 301 300 310 312 311 311 308 309 313 317 318 318 318 319 323 328 329 331 333 332 327 328 328 329 331 331
297 293 294 311 311 305 308 310 311 311 312 313 312 314 314 316 315 317 320 326 332 330 329 331 331 330 327 325 328 329 330 329
300 299 307 312 309 312 312 308 311 312 313 317 320 318 317 316 317 324 329 329 328 327 326 326 327 328 325 322 324 325 323 322
306 306 308 312 314 315 314 311 311 313 315 314 315 323 323 324 323 325 324 323 324 325 322 319 320 322 321 323 326 325 323 322
306 312 311 312 314 314 315 316 315 314 314 314 314 315 326 325 326 326 324 322 322 321 320 319 321 322 323 323 324 322 320 320
303 308 309 310 314 314 311 311 310 311 311 311 311 311 315 324 327 327 324 323 321 321 321 320 321 321 321 320 322 318 317 317
310 315 311 313 311 313 310 310 310 309 309 308 309 310 312 321 322 321 323 320 322 322 321 319 319 319 320 320 321 317 315 315

GFSFLT2_sfc_thetae_018.txt.gz
Theta_e
302 303 303 296 293 297 290 287 289 293 298 306 309 311 315 318 322 323 326 332 333 335 336 337 338 340 341 342 344 345 346 344
300 302 301 299 299 293 289 286 285 290 293 296 303 307 311 313 320 322 325 330 333 336 337 338 339 341 343 344 344 344 344 339
297 296 296 295 293 292 292 290 287 286 291 300 304 306 309 313 319 321 323 327 332 336 338 339 340 341 342 344 344 343 341 337
293 297 300 299 296 295 293 288 289 289 292 305 306 308 312 315 319 319 322 326 331 335 337 339 339 340 341 344 345 345 341 337
289 292 295 295 296 293 291 291 289 291 293 305 307 309 312 315 316 318 322 324 328 331 335 337 338 340 342 343 345 346 341 336
291 293 295 294 297 296 294 290 290 293 297 301 308 308 311 315 317 318 322 325 326 327 331 334 334 338 342 343 346 344 340 337
298 297 297 297 298 297 295 295 294 297 298 303 306 309 310 316 318 318 318 320 325 327 329 331 332 334 339 343 345 343 339 336
296 298 298 297 298 299 299 298 297 298 298 304 308 310 311 314 316 318 318 320 323 326 328 328 330 332 338 342 345 342 338 335
292 294 294 291 298 298 299 300 301 297 304 306 308 309 311 312 316 318 320 321 320 324 326 327 329 334 338 342 344 340 338 333
290 291 286 297 304 303 302 306 306 307 306 308 310 313 313 314 314 317 318 321 322 323 325 326 332 336 339 341 341 338 335 332
291 287 293 303 307 308 304 304 310 308 310 313 314 313 311 314 315 315 319 320 323 325 327 328 327 332 337 338 339 336 334 332
290 288 289 299 308 314 312 299 310 311 310 312 312 305 307 316 316 316 317 317 318 320 324 329 332 332 334 334 336 335 334 334
294 293 297 307 310 313 300 301 310 311 311 312 310 309 315 319 318 319 321 323 326 327 328 331 335 333 330 331 333 335 335 336
297 294 293 310 309 303 307 310 312 314 314 311 313 314 317 318 321 325 326 329 330 329 330 332 333 332 329 329 330 333 333 333
301 298 307 310 308 312 312 310 312 312 314 320 320 321 321 322 325 325 325 325 328 327 326 327 330 331 328 327 330 330 329 330
305 308 309 310 310 312 312 309 310 310 311 312 317 321 322 324 324 324 324 325 326 324 323 323 324 326 327 327 328 328 326 326
305 310 310 311 313 313 311 312 312 312 311 311 312 313 318 324 326 326 325 325 325 323 323 322 323 325 327 328 328 326 326 325
303 310 308 309 312 313 310 310 311 309 309 311 312 312 321 324 326 327 325 324 323 322 323 321 323 323 323 325 326 324 321 321
307 311 310 310 312 312 308 307 308 308 308 307 308 309 312 319 324 321 324 323 322 322 321 321 322 322 323 323 322 321 320 320

GFSFLT2_sfc_thetae_021.txt.gz
Theta_e
307 309 311 307 303 311 304 301 302 306 310 314 320 321 324 326 328 331 334 336 337 339 342 345 347 349 351 353 354 356 355 359
305 309 309 308 310 301 303 298 295 300 303 305 314 317 322 324 325 329 333 336 337 340 343 346 347 350 352 354 354 355 355 356
304 303 303 304 303 304 307 304 300 298 302 315 317 321 321 323 325 327 331 334 338 342 345 347 348 348 350 351 354 355 356 358
301 307 307 307 305 306 302 301 302 303 303 314 317 320 322 322 324 327 331 333 337 340 343 344 347 346 347 350 351 354 356 356
300 304 305 303 305 307 307 306 305 299 303 317 316 318 320 320 326 329 331 333 336 339 343 346 347 349 349 350 349 351 354 351
297 301 305 302 302 304 304 301 302 302 306 312 315 318 323 324 326 329 331 332 335 338 343 346 349 350 351 349 350 351 352 350
306 307 305 304 302 303 302 305 302 305 306 312 317 319 324 329 329 328 329 332 336 337 342 346 348 351 351 350 353 354 353 350
304 307 305 302 304 304 304 305 305 307 308 317 320 321 320 324 326 328 330 331 334 337 339 342 345 346 348 350 351 355 351 349
299 305 302 298 304 305 306 308 307 304 311 319 315 317 321 326 327 329 332 334 334 336 341 342 342 345 345 348 353 352 350 348
301 300 292 304 310 309 307 308 310 311 314 317 319 322 324 327 328 329 332 334 334 334 338 341 342 343 347 349 352 351 349 345
301 299 302 305 311 306 304 307 313 312 316 319 319 318 321 322 324 328 330 332 334 335 337 339 342 345 348 349 351 350 347 344
301 297 295 306 312 316 316 304 317 318 319 319 319 313 320 322 324 327 330 333 335 337 339 340 341 346 347 348 348 347 347 345
302 299 304 312 315 316 304 308 317 318 320 319 318 320 323 326 328 330 330 332 336 339 340 343 345 344 344 346 346 349 348 346
305 300 298 315 314 310 315 319 319 320 321 320 323 326 329 331 332 334 336 338 339 339 340 343 345 346 345 345 349 348 344 343
305 305 314 314 315 317 318 319 321 326 328 329 327 328 330 331 332 333 334 335 338 339 340 342 344 344 342 336 341 344 344 342
310 312 312 313 315 315 316 315 317 319 321 324 324 327 330 332 332 333 334 335 338 340 339 338 340 337 340 341 343 343 341 340
309 310 312 311 314 316 316 316 315 316 318 322 327 327 330 331 333 334 335 335 335 336 336 334 336 337 339 338 338 339 339 339
307 313 314 312 314 316 313 313 315 315 315 318 321 326 330 331 333 334 334 334 335 334 335 333 332 336 337 336 337 337 335 334
313 316 314 313 313 311 310 310 312 312 312 312 315 320 323 323 327 324 333 332 332 334 334 335 335 335 335 336 337 335 331 329

GFSFLT2_sfc_thetae_024.txt.gz
Theta_e
311 311 311 309 308 315 310 311 307 310 314 319 322 323 325 326 328 331 336 339 339 341 344 345 349 355 360 364 368 368 363 369
310 312 311 311 315 307 310 303 301 306 309 310 317 319 322 323 326 330 334 338 340 341 344 347 349 353 356 362 366 364 362 363
310 307 306 307 308 311 311 309 303 302 306 318 318 320 320 322 325 327 330 336 339 342 344 348 350 351 354 357 359 360 364 365
305 310 311 311 309 311 306 307 309 308 308 320 321 321 322 323 324 326 329 333 338 342 344 345 349 350 352 354 356 358 363 367
303 306 309 307 310 311 312 312 310 304 307 321 320 321 324 324 327 329 336 337 338 341 344 346 348 354 352 354 354 356 359 359
301 304 306 303 305 309 309 307 307 308 312 316 318 319 322 324 326 329 332 338 340 341 344 347 351 357 358 354 355 356 356 358
309 309 309 307 305 305 305 307 305 309 310 315 319 320 322 324 325 326 334 338 341 341 344 349 352 357 356 355 356 357 357 357
307 309 309 306 308 308 307 307 307 308 309 318 320 322 321 322 323 326 332 338 341 343 345 349 351 354 355 355 356 358 357 358
304 309 309 304 308 309 309 310 308 305 311 316 316 318 321 326 326 327 329 337 340 343 346 349 351 355 354 356 357 358 359 360
305 308 298 309 315 314 311 312 312 311 313 315 317 321 323 330 328 329 331 333 340 342 345 349 351 353 354 356 358 359 360 359
304 304 307 309 312 311 310 310 315 313 315 316 319 322 324 329 332 333 334 337 340 344 346 349 349 352 353 354 356 357 357 358
309 302 299 312 317 321 320 307 316 316 315 316 318 313 319 330 332 331 333 338 342 343 344 347 349 351 352 353 355 354 356 356
306 305 308 316 318 320 306 309 323 319 318 318 317 321 329 331 333 335 337 341 343 344 344 348 351 353 352 353 353 356 356 356
308 305 303 317 318 312 320 328 326 326 326 326 328 331 333 335 337 338 340 342 345 346 347 348 352 354 353 353 356 358 357 355
312 311 318 319 319 322 323 325 330 328 328 330 330 331 334 335 338 339 341 342 344 346 347 351 354 354 352 354 357 356 355 352
313 314 316 318 318 320 323 322 325 331 332 332 330 331 332 334 335 337 339 340 342 344 346 348 351 353 351 352 354 351 349 346
314 315 314 316 318 319 318 321 323 327 330 332 333 334 336 337 338 339 340 343 345 346 347 348 350 349 351 350 351 346 346 345
310 317 316 315 317 318 317 318 320 321 322 325 327 328 333 336 339 340 339 343 343 344 345 344 346 345 345 349 348 346 343 342
317 320 317 315 312 313 312 313 315 316 318 318 322 324 327 330 336 333 342 342 341 341 343 345 343 343 346 344 345 344 342 340

GFSFLT2_sfc_thetae_027.txt.gz
Theta_e
313 313 312 310 308 315 310 311 308 311 316 320 325 325 327 328 328 328 335 338 339 340 341 341 347 354 357 362 370 373 371 375
312 313 312 310 315 307 311 304 303 308 310 313 320 321 324 325 325 327 330 335 339 340 341 345 344 351 358 363 369 372 372 373
312 309 307 307 308 311 311 310 305 303 309 321 321 323 322 324 326 327 328 332 337 341 343 347 346 349 354 360 366 370 371 371
308 313 314 311 309 310 310 307 310 310 309 322 322 324 324 325 326 327 329 330 334 339 342 344 350 348 349 354 357 364 367 371
306 310 313 309 310 310 311 313 311 307 309 323 323 323 324 324 326 328 329 332 335 336 340 346 351 353 352 354 352 357 364 365
303 307 310 307 308 309 309 307 309 309 312 318 320 322 324 325 326 327 329 332 338 338 336 346 352 356 357 355 352 355 358 361
309 311 311 309 307 307 307 309 307 311 312 317 320 322 325 326 326 327 327 329 338 341 342 352 354 360 359 360 360 358 362 363
308 311 310 309 308 308 308 308 309 310 311 320 323 324 325 325 325 325 326 327 336 343 345 350 355 359 362 361 362 364 365 365
303 309 309 304 309 310 310 310 309 306 313 318 318 320 324 330 327 326 327 329 329 342 347 353 352 360 361 363 365 365 369 367
305 308 298 310 315 314 312 313 314 313 314 316 317 321 324 327 326 328 329 329 332 337 345 349 352 354 361 360 365 367 367 369
302 303 308 310 313 312 311 311 316 315 317 318 318 318 321 325 328 331 333 334 335 331 343 351 354 360 364 363 363 365 365 368
306 301 299 309 318 322 320 308 319 319 320 318 319 311 318 326 324 327 330 332 332 336 340 348 355 354 361 360 362 363 363 365
307 304 308 319 321 321 307 311 326 327 326 325 320 319 324 327 328 333 333 336 339 343 344 357 359 360 360 359 358 361 361 362
306 304 300 321 320 314 322 329 331 330 328 327 330 325 324 333 335 337 338 340 342 344 349 354 361 363 362 362 367 366 363 358
309 309 324 325 325 326 326 325 330 331 331 330 329 330 333 337 337 339 342 344 345 347 353 356 361 365 361 366 367 364 361 360
318 320 320 322 324 326 327 328 331 332 332 332 330 333 336 339 340 342 345 347 350 349 350 355 362 362 362 362 365 361 357 354
318 319 321 321 322 324 325 330 332 334 335 335 334 334 336 337 339 340 342 346 348 349 351 351 354 355 357 357 358 354 350 349
314 320 321 319 323 324 323 324 327 327 328 328 332 334 337 338 341 342 343 346 348 349 349 350 351 352 355 355 354 351 346 345
317 322 319 318 318 319 318 318 320 321 324 324 326 328 331 336 341 335 342 344 346 347 348 348 348 349 351 353 351 349 345 344

GFSFLT2_sfc_thetae_030.txt.gz
Theta_e
313 313 311 308 306 312 307 309 306 310 314 321 325 323 327 328 328 328 331 337 339 343 344 345 349 351 354 362 363 366 368 368
313 314 312 310 313 304 306 301 301 307 310 312 321 320 325 324 327 329 330 337 338 339 343 345 348 352 355 358 364 367 369 369
313 309 307 307 305 307 308 308 303 302 308 321 321 326 326 326 328 329 328 334 338 339 342 345 346 350 352 355 362 365 368 369
307 314 314 311 308 307 302 305 308 307 309 321 328 327 328 327 329 330 331 330 333 340 342 343 344 346 349 353 354 363 367 367
304 309 313 309 309 308 307 307 307 304 307 321 324 323 325 327 328 330 333 337 338 337 341 344 344 345 346 350 352 359 365 365
302 306 309 308 309 309 307 303 305 308 311 316 321 322 325 327 329 331 337 340 340 346 343 344 346 346 347 348 353 355 361 363
309 308 310 309 309 308 307 308 305 308 312 316 320 324 325 334 332 333 336 337 341 340 348 354 350 350 350 350 351 354 358 360
306 308 308 307 310 310 310 309 309 310 310 319 323 325 328 324 325 330 333 333 341 347 350 354 356 353 351 352 352 354 355 358
303 308 307 303 309 310 310 311 310 306 313 319 319 321 326 329 326 331 331 332 337 346 349 353 357 358 354 354 357 354 357 358
304 307 298 309 314 313 312 312 312 312 315 317 319 322 323 329 332 333 334 333 338 334 346 352 353 354 362 358 359 358 360 360
302 301 305 308 312 312 310 312 316 315 317 317 318 319 320 324 326 330 333 338 340 334 332 350 350 355 358 361 359 360 359 366
305 299 297 309 313 318 317 308 319 318 319 318 321 313 316 326 325 326 328 330 337 338 335 337 351 354 358 358 361 358 363 365
303 301 305 313 316 321 308 313 327 325 324 323 322 327 335 333 329 327 328 331 334 339 342 359 354 355 358 359 360 362 366 368
304 303 300 319 320 313 324 330 330 329 329 327 330 331 332 334 335 336 342 341 341 351 356 362 360 364 361 361 366 368 366 366
308 308 322 321 327 329 328 327 329 330 329 329 328 328 329 337 340 337 340 345 347 353 364 366 372 365 361 367 366 366 363 362
310 314 321 323 324 328 329 329 331 332 331 330 329 330 333 338 339 341 345 349 353 355 358 361 366 367 366 365 363 361 359 359
312 324 323 323 325 326 328 332 332 336 336 337 338 338 340 342 345 345 350 354 355 357 357 360 363 362 363 362 361 358 356 351
311 311 313 322 325 328 327 327 330 331 332 336 338 337 339 339 344 345 348 352 352 350 348 352 356 355 356 359 358 353 347 346
310 315 312 321 321 322 320 322 325 326 327 327 333 337 336 338 336 332 341 344 347 347 349 350 352 354 357 357 354 348 344 344

GFSFLT2_sfc_thetae_033.txt.gz
Theta_e
309 310 306 299 298 303 295 299 296 301 305 313 320 319 322 321 323 324 326 331 332 332 335 340 341 346 349 353 353 355 357 356
309 310 308 303 302 297 299 291 292 299 300 304 314 316 320 321 322 324 325 328 334 334 334 341 342 344 349 356 355 357 357 358
307 303 302 300 300 298 298 299 292 292 299 308 314 318 320 322 324 326 328 328 332 335 336 340 343 344 346 355 356 357 358 358
301 308 309 306 301 298 295 291 296 297 298 312 316 321 323 323 324 326 328 330 330 335 337 337 342 344 346 355 355 358 359 360
297 302 306 303 305 302 300 296 295 292 298 312 313 320 323 323 323 326 325 322 328 333 336 338 341 344 345 351 356 358 359 360
295 298 301 301 304 304 301 296 294 297 297 305 311 315 318 320 322 323 325 325 324 333 334 337 338 342 344 347 354 358 359 360
303 305 305 304 305 304 301 301 296 298 299 303 308 316 319 319 318 320 324 326 324 331 333 336 336 339 343 346 347 355 356 358
300 305 304 303 305 305 305 304 303 303 302 307 309 320 320 321 320 320 324 328 329 328 335 336 336 337 340 343 345 347 353 355
295 302 301 298 302 304 306 307 305 301 303 308 308 312 316 320 319 320 321 325 329 332 333 336 340 340 339 341 344 346 346 352
295 299 292 301 307 308 307 309 308 307 307 310 310 313 317 321 320 321 322 324 325 336 336 338 347 343 343 343 343 345 347 349
295 295 297 304 307 306 303 304 311 308 309 311 311 310 309 316 319 315 320 321 326 328 338 342 345 348 345 344 346 344 346 348
295 292 291 300 310 313 310 300 317 314 311 310 309 302 306 321 322 319 320 320 323 326 326 340 339 351 347 345 347 345 345 350
296 293 297 307 311 312 300 302 322 322 320 320 316 320 322 324 324 323 319 321 320 322 324 327 340 348 350 348 346 351 352 357
297 294 293 317 312 310 318 322 324 323 322 320 320 322 322 330 330 330 333 335 333 326 330 333 340 348 347 349 352 353 358 360
302 301 316 319 319 321 322 324 322 322 322 322 320 319 329 331 332 330 331 333 337 347 353 355 352 349 349 354 358 359 359 358
305 308 311 315 319 320 323 324 331 333 333 333 333 336 336 337 337 340 343 345 348 350 350 352 355 358 357 358 358 357 354 352
305 308 313 318 313 319 324 332 332 334 334 334 334 335 336 336 339 343 345 348 349 349 351 352 355 354 355 356 355 352 350 346
301 309 311 312 312 315 326 327 327 328 331 333 334 334 335 334 337 341 341 343 344 347 348 350 352 352 352 351 348 345 341 340
309 314 312 313 314 315 315 323 325 325 327 327 332 332 332 333 334 331 336 337 338 340 341 342 342 340 347 346 343 342 340 336

GFSFLT2_sfc_thetae_036.txt.gz
Theta_e
307 306 305 297 294 298 290 293 291 295 302 309 316 316 321 325 327 325 325 326 328 330 334 336 338 343 346 346 346 350 349 348
306 305 306 303 299 292 288 286 287 291 296 299 307 313 317 323 325 325 326 327 328 329 333 337 338 344 346 347 346 349 351 350
301 301 300 298 296 294 294 292 290 288 294 303 305 313 316 322 326 326 325 327 329 330 331 336 339 342 347 347 347 348 350 351
297 302 305 304 300 296 294 288 290 295 296 306 308 314 319 320 324 325 325 329 330 331 332 332 338 339 345 349 348 349 351 352
291 297 301 298 301 301 291 291 294 290 292 305 305 314 318 319 320 323 326 323 329 332 330 331 336 339 343 348 350 351 352 352
293 294 298 296 301 300 298 293 293 295 294 299 302 311 316 320 321 322 323 323 321 325 329 333 337 339 341 345 352 352 353 353
295 301 301 300 301 302 298 299 296 294 295 298 301 306 314 319 321 323 323 321 325 326 328 333 335 339 341 343 350 353 353 353
296 300 302 300 302 303 302 302 300 296 296 301 304 305 308 316 320 320 318 320 321 323 327 333 335 339 341 343 348 352 353 353
289 298 299 296 301 302 302 302 301 296 299 303 303 308 310 314 316 316 321 321 323 325 328 334 336 340 341 342 346 351 351 354
289 292 289 298 306 306 302 303 304 302 303 306 306 307 310 311 314 316 317 319 322 327 330 334 336 337 341 343 344 346 351 352
288 289 294 301 303 302 300 301 306 306 306 306 308 307 306 313 317 317 317 318 320 327 333 334 337 336 337 338 341 343 345 349
292 288 288 296 306 309 306 296 311 308 307 307 305 303 302 316 315 314 314 316 323 326 331 332 339 339 336 336 338 340 343 344
293 293 294 302 307 307 297 297 317 316 311 308 309 306 316 321 320 318 315 315 317 318 323 335 340 342 337 337 337 340 343 345
295 292 289 311 312 299 304 318 318 317 316 316 317 318 323 324 326 328 328 330 324 316 316 317 335 346 341 338 342 343 342 344
300 301 308 312 309 312 320 318 319 319 317 318 317 322 326 325 326 333 332 330 341 330 332 338 330 344 344 343 344 347 344 347
302 307 307 312 311 313 316 327 330 330 331 331 330 333 333 334 336 340 342 342 344 344 343 343 345 339 343 345 347 350 348 354
302 307 309 312 311 312 324 330 331 332 333 332 332 331 335 335 337 339 341 343 344 344 343 344 345 346 350 354 355 354 353 353
300 306 309 309 312 314 314 317 322 328 329 330 330 330 333 332 333 335 337 339 341 341 343 344 346 346 349 353 352 348 345 339
308 313 312 312 314 315 314 314 314 314 321 322 323 328 331 329 330 329 334 335 337 337 338 340 340 342 341 344 343 342 336 333

GFSFLT2_sfc_thetae_039.txt.gz
Theta_e
305 303 303 295 293 297 287 288 287 292 298 307 313 314 317 320 321 322 324 326 328 330 330 333 335 338 341 342 343 345 348 348
302 304 302 300 297 290 285 285 285 287 292 296 306 311 313 317 321 323 325 325 327 329 330 332 335 337 340 343 343 345 347 348
300 297 298 294 295 291 292 287 288 283 291 300 305 309 311 315 322 324 325 327 326 328 330 332 335 337 340 342 343 344 346 347
297 299 304 302 298 295 289 287 288 292 291 302 306 307 312 315 319 324 327 328 328 327 329 330 333 336 340 342 343 344 347 347
288 292 295 296 298 298 296 289 293 288 290 301 304 308 311 314 317 320 326 325 327 327 327 328 332 336 339 342 344 345 346 347
288 289 294 293 297 299 296 291 293 295 292 296 301 303 308 315 317 318 322 324 326 326 327 328 331 336 337 342 344 345 345 346
292 295 297 296 298 299 294 297 294 296 295 298 300 304 307 312 317 319 320 322 325 326 327 326 328 334 337 341 345 346 345 346
290 296 298 296 298 300 300 300 297 294 294 300 303 302 303 307 314 317 319 323 323 324 328 329 330 333 337 338 343 347 346 346
285 293 293 292 297 299 300 301 300 294 297 300 300 301 302 304 308 316 320 322 320 320 324 327 331 334 335 338 342 347 347 348
285 289 285 297 303 304 301 301 300 299 300 302 303 305 307 306 308 313 317 319 319 321 321 322 328 333 337 339 339 345 347 348
285 285 292 299 300 300 298 297 303 302 303 303 304 303 303 308 309 314 316 317 322 324 325 324 326 332 335 336 339 343 345 347
287 285 285 295 308 312 305 297 304 304 304 304 303 298 305 307 312 314 315 315 318 323 327 328 329 334 336 337 339 340 345 347
289 288 292 306 310 313 295 297 306 310 307 304 302 305 308 309 314 311 312 314 316 321 327 331 331 332 333 336 337 341 344 348
290 290 287 310 310 301 304 309 312 314 310 305 306 308 313 318 321 322 320 314 313 314 322 327 334 333 331 331 337 340 342 342
295 295 305 309 310 312 313 311 311 318 314 314 317 319 321 322 322 325 325 332 327 312 312 313 326 335 332 334 336 336 338 339
299 306 308 311 313 313 315 317 328 329 325 323 326 328 329 332 333 335 337 339 339 338 338 338 342 332 334 336 336 334 334 335
298 306 311 312 312 313 314 317 325 328 328 329 332 331 332 334 335 338 340 341 342 341 340 341 344 344 345 343 340 339 339 337
297 306 308 308 313 316 314 314 316 318 320 321 324 327 331 330 332 334 335 337 339 341 342 342 342 341 343 346 347 347 346 345
307 310 311 313 314 316 315 315 317 317 318 319 322 324 326 326 328 326 333 334 334 336 339 339 338 338 340 341 340 336 333 330

GFSFLT2_sfc_thetae_042.txt.gz
Theta_e
301 301 300 292 291 294 286 286 284 289 294 303 308 309 315 318 320 321 323 327 330 332 333 333 335 338 339 340 341 343 345 346
301 301 301 296 298 290 285 283 281 286 289 294 303 306 310 313 318 321 322 323 328 331 332 333 334 338 340 341 341 343 346 346
297 296 297 293 291 289 292 286 284 282 288 297 303 306 308 311 317 320 322 323 326 329 332 333 334 336 338 340 341 342 346 347
292 297 303 302 297 290 290 285 286 286 289 300 303 307 310 311 315 319 323 324 326 328 330 331 331 333 336 339 341 342 344 347
287 294 295 294 296 292 290 287 292 286 290 301 301 303 305 309 312 317 321 324 326 326 327 329 330 332 335 337 340 343 344 345
285 288 292 290 296 296 295 290 292 293 292 297 301 300 304 308 313 314 318 322 325 326 326 328 330 332 334 337 340 342 343 344
290 293 295 294 295 296 295 296 292 295 295 297 300 303 306 306 313 318 319 321 322 325 325 326 328 332 335 337 341 343 343 343
288 294 295 293 296 297 297 297 297 296 295 300 303 302 304 307 310 315 318 321 322 325 326 327 327 331 335 337 340 343 343 342
284 291 291 289 295 297 297 298 298 295 298 301 300 301 303 306 306 311 317 320 321 323 325 328 327 331 334 336 341 342 343 344
284 287 283 292 300 301 299 300 300 299 302 304 304 306 306 306 308 306 311 319 321 323 324 327 330 330 334 337 339 343 343 343
284 283 290 294 303 304 300 297 302 300 302 303 306 305 303 306 306 308 310 316 321 324 325 326 327 332 333 335 338 341 343 344
284 283 282 294 306 312 310 295 306 307 304 304 302 297 304 307 309 310 312 315 317 320 323 322 324 326 331 334 336 338 344 345
284 285 289 301 309 311 295 297 309 311 310 309 301 306 309 309 309 312 313 314 316 319 324 326 327 331 332 334 336 339 343 347
283 284 284 307 308 302 304 310 312 314 314 312 314 307 308 311 312 313 313 315 316 319 321 325 331 333 333 334 338 342 343 345
288 288 299 308 307 311 311 312 313 314 316 322 322 309 311 317 322 325 332 333 320 313 327 334 331 334 330 333 337 338 341 342
294 299 305 309 311 312 314 314 315 317 324 327 317 323 329 332 335 339 340 340 342 341 340 340 344 341 337 339 339 336 336 337
294 296 305 311 311 312 315 317 317 319 324 331 332 333 335 334 336 336 338 339 340 340 341 340 343 345 348 347 342 339 337 336
288 298 299 306 311 315 314 314 317 318 325 327 330 330 333 332 333 333 333 337 337 338 339 340 341 342 345 348 347 346 342 340
296 307 308 310 313 315 314 315 317 319 321 325 327 330 330 329 329 326 330 332 332 333 333 333 335 338 340 340 340 336 332 330

GFSFLT2_sfc_thetae_045.txt.gz
Theta_e
305 307 306 302 300 305 298 297 295 300 304 309 313 315 317 324 327 330 333 336 337 339 342 343 344 348 350 351 352 354 355 356
304 307 307 304 306 296 299 291 290 296 298 301 310 312 317 320 325 328 332 334 336 340 342 344 344 347 351 352 352 354 355 356
304 301 301 300 301 301 301 298 293 292 297 309 312 316 316 318 324 326 328 330 333 338 343 345 346 344 348 350 352 353 354 355
300 306 308 305 303 302 297 296 297 298 298 309 313 316 318 319 322 325 328 330 332 333 338 341 344 344 345 348 349 351 353 355
298 302 304 302 304 304 303 303 299 294 297 312 312 313 315 317 321 324 328 331 333 333 336 340 342 343 344 346 347 349 353 353
296 298 299 298 301 304 302 298 299 300 301 307 310 311 315 317 319 321 327 331 334 335 336 340 342 343 344 345 347 349 351 351
296 296 297 298 298 300 300 303 300 302 304 307 310 313 317 319 320 320 323 328 332 335 338 341 342 344 345 345 348 349 351 351
292 296 297 296 299 300 300 301 301 302 303 311 314 316 316 318 319 321 322 326 332 336 339 341 341 343 344 345 347 350 351 350
289 294 295 293 298 300 301 303 303 299 306 311 310 312 316 319 321 321 323 328 332 335 339 343 341 343 343 345 349 350 351 352
289 292 286 299 305 306 303 304 306 305 307 310 312 316 318 321 321 322 324 325 328 330 335 340 340 339 345 346 349 350 351 353
286 289 293 296 301 307 306 304 311 308 309 310 312 314 317 319 321 323 326 328 328 327 331 341 342 343 345 346 348 350 350 352
289 285 285 297 303 309 312 300 313 315 314 314 315 306 311 323 320 321 322 324 326 329 330 334 341 340 344 345 348 348 350 352
286 286 292 301 308 315 301 303 316 318 319 319 316 315 322 323 322 324 326 327 329 329 331 339 339 343 345 346 346 349 353 355
287 285 283 302 309 304 311 316 318 320 322 320 322 325 326 327 326 322 325 325 325 328 331 335 340 343 344 347 350 354 355 353
291 290 300 304 306 315 317 316 318 320 324 324 322 325 330 330 327 327 338 336 326 330 337 341 344 344 347 352 351 351 351 354
295 298 301 304 308 312 317 318 320 324 325 324 324 329 333 331 332 343 346 341 340 348 346 346 348 348 349 349 353 355 353 354
294 296 299 304 307 312 317 320 322 325 323 322 330 334 329 335 342 341 341 342 345 346 346 348 352 354 356 352 352 350 350 351
290 299 300 302 307 312 314 319 323 323 320 325 334 335 337 338 339 340 340 342 342 342 342 345 350 352 350 355 355 352 348 346
297 302 302 305 305 306 308 319 321 319 322 325 333 333 330 330 332 327 334 334 335 335 338 342 346 343 346 348 347 343 339 336

GFSFLT2_sfc_thetae_048.txt.gz
Theta_e
310 311 311 306 303 308 303 304 301 305 309 314 317 318 320 322 325 328 334 340 342 344 346 347 349 353 359 362 365 365 362 368
309 311 311 309 310 301 303 296 295 301 303 305 312 314 319 320 322 327 330 336 341 344 346 348 350 352 357 362 365 365 364 365
308 305 305 306 305 306 306 303 298 297 302 313 313 316 317 320 323 326 329 334 340 343 345 348 350 350 353 357 361 361 363 365
304 310 311 309 307 307 301 300 303 302 304 313 314 316 319 320 323 326 330 332 338 341 344 345 347 349 350 352 354 357 362 365
303 307 309 306 308 308 307 307 304 299 304 316 316 316 318 320 323 326 328 331 334 335 338 341 345 352 349 350 352 354 360 358
301 304 307 304 306 307 306 303 304 304 307 311 312 314 317 319 321 323 327 330 333 334 336 338 344 354 356 351 351 353 355 356
306 303 302 306 305 306 305 307 303 307 308 312 314 315 318 320 321 322 325 327 331 336 338 342 345 353 357 355 356 355 358 358
300 302 301 300 304 305 306 307 308 308 308 316 317 319 318 319 320 320 322 323 327 334 338 343 345 348 352 355 354 357 360 359
296 302 301 298 303 305 306 308 308 305 311 315 315 316 317 319 321 321 323 325 327 332 338 342 346 349 351 355 355 357 359 362
295 299 290 304 311 309 307 308 310 310 312 314 316 318 320 322 321 322 323 325 329 329 332 340 343 343 351 351 357 358 359 361
292 293 299 303 304 304 305 307 312 311 313 315 316 317 317 320 323 324 326 327 329 329 329 333 336 341 347 350 351 353 358 360
294 290 290 301 307 310 311 302 313 316 316 317 317 310 314 322 323 325 326 327 327 329 330 331 334 338 345 349 353 356 358 360
291 290 296 304 309 315 300 308 320 321 323 324 322 323 327 330 331 332 332 331 332 332 332 338 338 343 350 349 351 358 356 357
290 289 287 304 304 304 312 318 320 321 322 323 326 329 331 333 334 334 333 334 332 333 333 337 344 347 357 356 359 362 362 358
294 293 303 305 306 309 311 312 315 319 321 322 323 326 329 334 337 337 338 337 334 337 336 341 346 351 352 362 364 360 360 363
297 300 302 305 307 310 312 312 315 319 321 321 322 325 329 336 339 339 341 337 341 338 339 346 352 354 355 356 361 360 360 359
297 301 302 304 307 308 309 315 316 319 321 323 324 326 331 337 342 341 341 349 347 347 351 353 356 357 356 356 358 355 356 357
293 301 302 303 307 310 309 309 311 313 317 323 327 328 330 340 345 344 344 347 349 350 355 360 358 353 360 359 358 358 357 356
300 304 304 306 308 309 308 309 311 313 318 322 325 326 336 334 334 329 337 338 340 342 344 347 347 347 351 356 361 359 355 352

GFSFLT2_sfc_thetae_051.txt.gz
Theta_e
312 313 312 308 305 310 305 307 303 306 311 316 319 320 322 323 328 330 335 338 341 343 345 344 348 354 357 361 366 370 369 371
312 313 313 311 313 303 305 300 299 304 307 308 314 317 321 322 324 329 334 338 340 342 345 348 347 353 358 361 367 368 369 370
313 308 307 308 308 308 307 305 300 300 305 315 316 319 319 321 324 327 331 336 339 340 345 350 350 349 355 360 363 367 369 370
308 312 314 312 309 310 304 303 305 305 306 316 317 318 320 321 324 327 330 332 336 340 344 346 349 349 351 354 357 365 367 369
306 310 312 309 311 311 310 309 306 302 306 319 318 319 320 321 323 327 330 332 334 336 342 345 347 354 354 356 354 357 364 365
303 308 310 306 308 310 309 306 306 307 309 313 316 317 319 322 324 326 329 332 334 336 340 345 349 355 357 354 353 356 359 362
309 310 310 309 308 309 307 309 306 309 310 314 316 317 320 322 324 324 325 327 331 333 336 340 347 354 359 356 359 356 361 362
306 309 308 305 309 309 309 309 310 310 311 319 320 320 319 320 321 321 324 327 329 333 336 339 341 347 355 361 358 362 362 362
300 307 306 302 307 309 310 312 311 307 313 318 318 319 319 320 322 322 324 326 327 329 333 339 339 349 352 359 363 362 360 366
298 303 295 307 314 312 310 312 313 314 316 318 319 321 322 324 324 324 325 326 328 328 331 335 338 342 351 351 364 363 364 362
295 299 304 307 309 310 309 309 314 314 315 317 318 319 320 323 324 325 326 328 329 329 330 333 333 340 346 352 356 361 362 363
297 294 295 306 311 312 314 305 315 316 316 317 318 312 316 326 329 333 332 334 333 331 331 331 334 333 337 347 358 360 361 364
294 294 300 308 311 315 301 310 322 322 323 323 321 325 332 333 334 336 336 336 338 338 336 339 341 342 347 347 355 359 361 365
294 293 292 309 307 304 313 317 314 318 321 323 324 325 327 330 332 335 339 340 339 337 338 341 344 351 354 357 360 369 367 366
297 297 306 308 308 311 312 311 314 316 317 319 321 322 324 327 330 335 341 343 343 340 344 350 350 357 357 361 371 369 370 369
297 302 304 306 309 311 311 311 313 314 319 320 321 323 325 327 331 336 343 345 346 343 342 349 355 356 363 366 375 371 370 369
298 301 302 305 307 309 310 312 312 314 316 315 316 318 323 326 331 338 346 347 346 349 348 347 353 357 357 362 367 364 364 362
294 302 303 304 308 309 309 309 311 313 312 314 315 316 321 326 331 340 345 350 349 351 353 356 358 360 363 363 363 364 360 358
299 305 305 307 308 309 309 309 311 312 312 312 315 317 322 327 331 336 344 347 348 351 354 355 353 352 360 364 363 362 361 362

GFSFLT2_sfc_thetae_054.txt.gz
Theta_e
315 314 312 307 304 309 303 305 302 305 309 315 319 320 323 323 329 331 333 338 341 344 343 342 344 346 348 353 357 360 362 364
313 315 312 310 312 302 304 297 297 302 306 308 314 318 321 321 322 329 333 337 340 343 344 343 344 347 349 353 356 361 363 364
311 309 307 307 307 307 306 304 298 298 304 317 318 319 320 321 325 327 332 335 339 342 346 345 345 346 348 349 357 360 363 365
305 313 313 311 308 309 303 302 304 304 305 317 319 322 322 323 326 327 330 335 339 343 345 346 346 346 348 350 352 360 364 365
302 309 313 309 309 309 310 308 305 301 304 319 318 319 323 322 324 330 332 338 340 340 342 346 347 348 348 351 352 357 362 364
301 305 310 307 308 309 307 305 304 306 308 313 316 317 319 325 326 328 334 335 338 340 340 345 349 350 350 351 353 355 359 363
307 309 311 308 307 308 308 309 306 308 310 314 318 318 321 327 329 330 333 333 340 337 340 346 350 352 353 353 354 354 356 359
304 308 309 308 309 309 309 309 309 310 311 318 321 323 322 325 325 327 328 330 334 340 345 350 349 353 354 354 356 356 357 357
298 306 307 303 309 309 310 311 311 308 315 321 319 320 322 326 325 324 325 332 333 337 346 354 353 356 356 357 358 359 358 361
298 302 295 308 315 313 311 313 314 314 316 318 320 323 325 328 326 323 326 330 333 330 336 341 340 341 356 357 364 359 360 362
295 297 304 308 311 311 309 309 315 314 317 318 319 321 322 324 325 327 332 334 335 331 331 344 340 342 354 353 357 363 360 362
297 294 294 306 312 316 315 305 321 317 316 316 317 311 322 334 333 334 336 339 340 340 339 341 343 341 355 352 358 358 360 361
294 294 300 308 311 315 303 309 318 320 321 324 320 324 328 330 331 333 336 339 344 344 341 345 351 352 361 363 356 360 362 364
294 293 293 309 308 306 314 316 314 317 317 317 321 324 324 326 329 331 336 338 343 345 346 348 351 353 358 360 365 367 368 364
297 297 307 306 307 310 312 312 313 313 314 317 320 321 323 325 329 331 335 338 346 348 351 352 356 364 361 362 372 381 368 367
297 301 303 305 307 310 311 310 312 312 313 314 316 317 317 320 323 329 333 335 346 352 349 353 356 356 366 371 375 373 374 369
296 300 303 304 306 307 308 310 310 312 312 312 315 315 315 318 321 325 332 335 346 350 352 355 361 363 363 368 368 362 370 368
294 301 302 303 307 309 308 308 310 310 310 312 314 314 314 317 320 323 332 334 343 347 351 357 362 366 369 373 371 364 364 364
296 302 303 305 308 308 307 309 309 310 311 313 314 314 314 316 320 325 331 336 340 347 350 356 358 359 361 366 370 367 364 361

GFSFLT2_sfc_thetae_057.txt.gz
Theta_e
313 314 310 302 300 302 292 295 292 296 301 308 312 312 316 321 329 331 333 335 335 335 336 336 338 341 344 347 348 350 351 353
310 314 312 305 305 297 297 287 289 295 297 301 305 309 311 313 322 326 332 335 336 336 335 337 338 341 343 348 349 351 351 353
304 306 305 303 300 301 296 294 289 289 296 306 308 311 311 314 316 325 328 335 336 337 336 338 338 340 342 344 350 351 354 352
298 305 310 307 303 300 296 291 293 292 296 311 310 314 314 315 316 320 328 336 337 338 337 337 337 338 340 344 348 352 353 355
295 300 304 304 304 304 299 297 293 292 295 311 311 314 315 315 317 318 324 333 337 338 336 336 336 337 340 342 347 350 353 354
289 296 300 300 304 304 301 295 295 298 297 307 309 311 313 314 318 322 321 330 335 337 337 337 337 338 339 341 344 350 352 355
298 303 304 304 305 304 301 301 298 299 301 306 308 312 316 319 321 322 324 329 332 335 338 339 338 338 340 341 343 345 353 354
297 303 304 304 307 306 305 304 303 302 302 311 314 314 316 318 319 318 322 324 326 329 336 338 340 340 341 341 344 346 345 353
291 301 301 297 304 306 305 307 305 301 304 312 311 316 316 317 318 319 322 322 321 325 328 337 341 343 343 344 345 346 347 348
290 297 289 301 311 311 307 308 309 307 311 314 314 317 318 316 315 317 319 319 321 320 322 328 338 347 347 347 348 347 347 349
288 293 298 305 306 305 304 308 313 315 317 317 322 323 323 328 328 328 329 331 330 331 332 333 333 332 348 347 349 350 350 350
292 289 291 297 304 309 310 301 313 313 316 317 321 313 316 324 327 329 332 334 337 337 333 332 335 338 341 346 350 348 349 353
290 290 296 300 304 313 300 301 310 310 311 315 314 316 318 324 326 331 330 332 338 340 339 337 337 336 337 334 341 350 352 353
290 290 288 303 303 297 304 310 308 309 309 313 314 315 316 317 320 326 327 329 331 336 341 346 341 337 332 340 340 344 354 354
291 288 299 302 302 305 305 304 308 307 308 310 312 311 313 313 314 317 324 326 329 332 342 347 348 340 339 340 346 351 355 353
291 296 298 300 303 303 304 303 306 306 307 308 308 311 310 311 312 313 316 323 328 326 335 340 347 350 349 341 351 353 350 356
290 294 295 299 300 301 303 305 306 307 307 306 306 309 309 309 310 311 313 321 326 325 328 337 343 354 358 352 350 346 346 358
287 293 292 293 298 301 300 301 303 305 306 308 308 308 310 308 310 311 310 313 325 327 333 338 342 350 355 357 358 356 347 351
292 295 295 296 298 300 299 301 302 304 306 306 308 309 307 308 309 311 312 312 324 325 331 338 342 346 352 352 352 353 355 348

GFSFLT2_sfc_thetae_060.txt.gz
Theta_e
308 309 309 301 298 303 291 289 289 293 299 304 307 311 316 323 326 326 331 332 332 334 336 336 339 341 342 341 341 346 347 348
303 307 310 307 303 294 290 290 286 290 293 299 302 305 307 320 324 327 332 333 334 334 336 337 339 341 343 343 342 343 348 347
299 298 299 304 302 295 296 290 290 286 293 301 303 306 307 314 326 329 332 333 334 334 336 337 338 340 342 344 343 343 345 348
292 301 303 305 301 299 294 289 289 290 295 305 307 308 309 310 324 331 333 334 335 335 335 336 336 338 341 343 344 345 346 346
290 294 299 297 299 296 293 293 290 291 295 304 304 307 310 312 313 328 332 334 335 335 334 335 336 337 339 342 345 346 347 347
284 288 294 293 297 300 296 292 291 295 298 300 304 306 311 310 313 323 331 333 334 334 334 335 335 336 338 340 345 347 349 349
289 292 295 296 297 301 297 298 295 297 296 300 302 306 311 311 314 319 328 332 334 334 333 334 335 335 337 339 342 346 348 349
284 293 297 297 302 303 303 301 298 298 298 305 306 310 312 314 318 319 328 332 334 335 334 334 334 335 336 338 340 345 346 348
282 295 297 295 298 303 303 302 300 298 301 307 308 312 315 314 317 317 320 327 334 335 335 335 335 336 335 338 340 343 345 347
283 292 289 298 303 303 306 305 306 307 312 312 318 321 322 325 324 324 324 325 325 326 327 336 338 337 338 338 339 340 341 347
282 289 297 298 299 299 297 301 305 307 316 319 319 320 319 325 328 329 331 332 328 328 328 331 333 337 339 338 339 340 340 342
285 286 289 292 300 306 308 296 306 306 309 312 315 308 310 320 325 325 328 333 337 340 342 335 331 335 341 341 341 340 341 343
287 288 294 296 301 305 294 296 305 307 307 307 305 308 310 314 315 324 325 326 334 340 343 343 338 330 332 339 342 344 345 346
286 286 287 298 299 294 297 301 302 304 304 306 307 308 309 310 311 313 317 324 324 329 337 341 344 345 337 335 337 341 349 348
287 288 295 296 299 304 303 300 301 301 303 303 306 306 308 308 308 310 312 324 324 320 324 335 339 346 347 352 337 340 345 347
288 292 292 294 298 303 300 299 301 301 302 304 303 306 306 307 308 309 310 313 324 323 323 328 336 342 348 353 350 344 341 344
288 290 293 296 297 298 298 301 301 302 301 302 304 305 306 306 307 307 308 309 317 322 321 322 333 337 344 351 352 351 346 343
287 293 293 294 297 300 298 299 300 301 301 301 304 304 306 306 307 307 308 309 310 321 322 324 331 335 340 348 348 346 346 348
293 297 297 301 301 301 299 301 302 302 302 301 305 305 305 306 306 308 307 309 309 317 324 326 328 331 334 341 344 341 341 344

GFSFLT2_sfc_thetae_063.txt.gz
Theta_e
301 302 303 299 297 301 290 289 287 292 296 304 308 311 320 322 323 323 326 330 332 334 336 337 339 340 339 339 341 343 343 345
298 301 303 302 301 294 290 289 285 288 291 297 301 303 316 319 321 323 325 329 332 333 334 336 338 340 341 339 341 343 345 345
295 294 294 296 298 294 296 291 291 286 293 298 302 305 306 314 321 323 325 327 332 332 334 336 337 339 340 340 339 341 344 345
289 298 300 298 295 299 293 289 288 289 295 304 304 305 306 307 314 320 327 328 332 332 333 335 335 337 339 340 340 340 343 344
287 290 294 291 294 294 294 291 290 290 295 302 302 303 306 307 310 323 326 328 331 332 333 334 335 336 338 340 341 341 341 343
283 286 289 287 290 291 290 288 297 294 294 299 300 301 303 305 308 312 326 328 331 333 333 333 335 336 338 340 342 342 342 342
288 289 290 289 289 291 290 294 290 298 295 298 299 302 303 308 311 310 316 328 331 332 333 333 334 335 337 339 341 343 342 342
285 290 290 288 291 294 296 298 298 297 296 300 308 315 317 313 311 311 321 329 331 333 333 333 334 335 336 337 340 343 342 342
280 288 288 290 295 300 300 301 299 295 299 307 315 318 319 320 321 315 323 329 331 333 333 333 334 335 335 336 339 342 343 344
280 285 283 295 300 301 300 300 302 304 311 316 317 318 318 321 321 326 323 324 329 334 334 335 335 335 336 336 337 339 342 344
281 283 291 296 296 295 296 295 298 300 305 311 319 319 314 313 321 323 330 335 332 327 329 330 333 335 334 334 336 338 340 342
285 281 289 292 297 299 301 292 299 300 298 304 311 303 304 310 313 320 322 331 339 340 333 330 329 335 333 334 335 335 338 343
284 285 291 296 296 301 293 291 299 299 298 299 301 304 307 309 310 315 323 321 327 337 339 340 336 335 334 334 335 337 337 338
286 286 287 295 296 293 296 300 299 299 298 298 302 307 306 307 307 309 313 322 322 325 332 338 344 349 344 339 336 343 343 341
286 286 294 296 295 299 301 297 297 298 300 300 301 303 305 305 306 307 308 313 323 319 321 331 337 346 346 346 338 336 343 344
287 292 292 295 298 299 300 298 300 301 301 301 300 303 304 304 305 305 307 308 319 321 318 321 331 337 343 347 347 346 343 341
289 292 293 296 297 299 300 302 302 304 303 302 302 301 302 303 305 305 306 308 309 317 319 320 325 330 335 344 345 342 342 343
286 293 293 294 298 300 300 302 302 302 303 304 304 302 304 302 304 305 304 306 306 308 316 321 323 324 328 335 340 338 337 338
293 297 297 299 301 304 304 304 304 304 304 304 305 304 303 302 304 306 304 305 306 306 313 320 323 324 325 328 332 333 334 334

GFSFLT2_sfc_thetae_066.txt.gz
Theta_e
300 300 298 295 295 299 290 288 286 291 295 302 307 308 316 319 323 325 328 332 335 337 338 337 338 338 338 338 339 341 342 343
297 300 300 296 299 292 288 287 285 288 291 297 301 306 307 317 320 323 327 330 332 335 337 339 339 340 340 340 339 341 343 343
294 292 292 293 292 292 294 292 290 285 292 298 302 306 306 313 320 323 325 327 330 333 336 338 340 340 340 339 339 340 342 343
287 296 298 295 293 290 288 288 288 291 294 304 303 304 306 308 321 324 325 326 329 332 335 335 337 339 340 340 340 341 343 343
283 287 292 290 291 287 287 285 289 290 293 305 307 304 305 306 308 316 324 326 327 330 332 334 335 338 339 340 339 341 343 344
279 283 288 287 290 290 286 284 286 292 295 299 302 302 304 305 307 309 320 324 326 329 332 333 335 337 339 340 341 340 341 343
286 289 289 289 289 291 288 288 286 292 295 299 301 303 305 312 316 311 310 323 326 328 331 333 334 336 338 340 341 341 340 341
282 288 289 287 290 293 292 292 291 293 294 304 315 318 318 318 321 322 315 313 326 329 332 332 334 335 337 339 340 342 340 340
278 286 286 285 290 294 295 295 297 294 299 307 315 312 309 311 316 320 325 326 315 328 332 333 334 336 336 339 341 341 341 341
281 282 279 291 299 300 295 295 296 296 298 314 314 313 311 312 312 317 323 331 326 330 333 335 335 336 337 339 340 341 341 342
280 280 287 293 295 293 292 293 297 295 297 300 309 315 312 311 312 318 321 324 335 331 332 334 335 336 336 337 339 340 341 342
286 278 283 293 295 297 299 290 298 297 295 296 306 299 303 308 310 314 321 322 336 335 331 331 333 336 334 334 336 337 341 343
283 282 287 292 294 297 291 290 298 297 296 296 295 300 307 309 309 311 318 322 326 337 339 342 334 335 333 333 334 338 341 344
285 281 282 293 293 290 292 296 298 298 297 297 299 302 305 307 307 308 309 319 322 323 331 340 347 338 333 334 338 340 341 343
285 285 293 295 294 298 299 297 298 299 300 301 301 300 302 304 307 307 308 310 320 322 323 327 336 348 345 344 342 344 340 340
288 291 292 295 299 300 300 299 301 302 303 304 301 302 301 303 304 305 307 308 312 319 322 323 326 331 340 345 347 345 344 346
288 292 293 296 298 299 300 302 303 305 305 304 304 304 303 302 303 307 306 307 308 312 318 322 325 326 330 337 340 341 342 344
286 292 293 294 299 302 301 302 305 305 305 306 305 304 305 304 303 306 305 306 307 309 314 319 322 323 327 331 334 336 338 339
293 297 298 299 300 301 301 303 304 305 306 306 307 306 305 304 304 306 307 306 308 309 313 316 317 318 323 328 331 332 334 337

GFSFLT2_sfc_thetae_069.txt.gz
Theta_e
302 304 305 302 300 305 298 299 296 300 305 311 314 316 318 321 327 330 334 338 340 342 342 344 346 348 348 350 351 352 351 354
299 302 304 304 307 299 300 291 291 297 300 303 311 312 316 319 322 326 332 335 339 341 343 346 346 348 349 350 351 353 353 353
295 298 299 300 299 301 302 300 294 293 298 310 312 316 316 318 323 328 331 333 337 342 345 346 346 346 348 348 350 351 352 354
289 298 300 298 299 301 296 297 300 299 299 313 314 315 315 317 320 325 331 334 337 340 343 344 346 346 346 347 347 350 352 354
286 294 298 296 296 297 296 297 298 296 299 314 315 315 317 316 318 322 331 334 336 338 342 345 347 348 348 348 346 347 350 350
285 288 291 291 293 295 295 295 297 299 303 309 312 314 316 316 316 317 320 331 334 336 339 344 346 348 349 349 348 349 349 350
289 290 290 289 290 292 293 296 295 300 302 307 311 312 321 323 326 328 329 326 330 334 338 342 344 347 349 349 351 350 350 350
286 289 291 289 291 292 293 295 296 298 299 308 313 322 319 319 321 324 328 332 331 333 338 342 343 345 348 349 350 351 351 351
282 289 290 287 292 293 295 300 301 298 303 308 314 318 317 318 320 322 326 329 332 338 337 343 343 344 346 349 352 350 350 352
283 286 280 295 302 302 299 299 300 302 303 305 315 318 316 316 316 319 324 328 331 334 340 341 343 343 348 348 351 350 350 351
281 282 288 293 294 294 295 295 300 299 301 301 307 313 315 312 312 314 320 327 331 340 342 339 343 347 348 348 350 350 350 351
285 280 281 290 294 298 298 294 301 300 300 299 309 313 308 309 310 311 319 327 331 344 341 339 345 344 347 347 349 349 350 352
284 282 287 292 294 297 290 293 298 300 301 300 302 304 307 309 310 311 315 326 334 343 344 345 347 347 346 347 347 350 351 352
284 282 281 294 293 289 292 299 299 301 302 302 306 305 305 307 309 310 311 319 328 333 337 347 346 348 348 347 352 354 355 354
287 289 295 296 295 297 299 299 300 301 304 305 305 305 306 305 308 311 311 312 320 325 331 336 343 350 346 349 350 352 353 355
288 292 293 296 298 300 300 300 302 304 305 306 304 305 306 307 309 313 313 311 315 317 320 324 334 339 344 350 352 351 352 352
288 292 293 297 298 300 301 303 304 307 307 306 306 305 306 307 309 311 315 316 316 316 317 318 323 330 335 341 351 353 353 352
287 293 294 295 299 301 300 300 303 304 305 308 308 306 307 307 309 311 312 317 318 318 317 318 320 322 328 333 340 344 346 348
293 297 297 298 299 300 300 301 304 305 305 305 309 308 308 307 309 309 313 316 316 318 319 320 319 320 324 329 332 335 335 341

GFSFLT2_sfc_thetae_072.txt.gz
Theta_e
306 310 309 306 301 308 302 304 300 301 304 313 318 320 323 325 328 332 337 340 342 345 347 347 348 351 354 358 361 361 355 362
306 307 308 307 311 301 303 295 295 300 302 303 311 317 321 323 324 328 333 338 341 344 346 348 349 350 352 356 359 358 357 358
299 302 302 304 303 306 306 303 298 297 301 312 313 317 319 322 324 326 328 332 339 343 346 349 350 351 351 352 354 355 358 360
294 304 305 304 305 305 300 301 304 303 302 315 315 317 321 322 324 326 329 333 337 342 347 348 349 350 351 352 352 354 359 362
292 296 300 300 304 305 306 306 303 300 302 317 318 318 320 320 321 323 326 331 337 339 344 347 349 352 351 352 351 352 356 355
289 292 296 295 299 301 303 300 302 303 307 312 314 316 319 323 326 326 326 328 335 339 342 348 351 355 355 351 352 351 352 353
294 294 293 293 293 295 298 301 300 304 306 311 315 317 321 326 327 327 330 331 331 337 341 345 350 355 356 352 356 354 356 353
290 293 293 291 294 295 296 299 301 303 304 314 316 319 320 325 326 327 330 332 336 338 337 341 346 351 355 356 356 358 359 357
287 292 291 288 293 295 297 300 301 299 306 313 314 318 323 323 325 327 329 333 336 338 341 341 343 349 354 357 358 359 361 361
287 290 282 294 305 304 301 300 303 306 310 312 314 322 322 322 322 323 326 330 335 338 340 343 344 345 351 353 359 361 361 362
285 286 290 292 297 296 295 299 306 306 310 311 312 317 320 320 320 322 323 326 334 339 341 345 347 346 350 351 354 357 359 361
288 283 282 292 295 298 298 292 303 306 307 307 311 311 317 316 317 318 320 324 334 341 345 349 351 347 347 350 356 358 359 360
287 285 289 297 298 299 288 292 301 303 304 306 304 311 314 315 315 315 316 317 331 342 346 352 350 348 353 352 354 358 357 357
286 284 282 299 299 291 294 298 301 302 303 305 307 309 313 314 313 314 314 315 321 334 341 353 350 351 358 356 357 361 361 358
290 290 299 299 299 301 301 298 299 300 303 305 306 307 311 312 312 312 316 315 317 324 338 346 355 352 352 358 361 359 360 361
291 297 298 296 302 302 301 300 302 304 305 307 307 307 309 310 310 311 314 315 318 318 324 330 341 349 353 355 358 358 357 358
291 296 294 297 299 300 301 303 302 304 305 306 308 308 308 309 310 311 313 317 318 318 319 320 327 333 342 353 357 354 356 356
287 292 293 294 298 300 299 301 303 303 304 306 307 309 309 309 310 311 312 317 318 320 320 320 323 327 331 338 351 357 355 353
291 296 296 297 299 300 298 300 303 304 305 306 307 310 310 307 309 310 315 316 318 321 322 324 324 323 325 328 333 344 348 353

GFSFLT2_sfc_thetae_075.txt.gz
Theta_e
311 312 311 307 303 309 303 305 301 303 305 311 316 320 326 326 333 335 340 342 344 345 346 347 351 356 357 359 361 362 360 361
308 311 311 308 312 302 303 297 296 303 304 303 310 315 321 324 329 333 339 340 342 345 347 348 349 352 358 360 362 363 360 363
304 304 304 305 304 307 307 304 299 298 304 314 312 317 319 322 327 330 333 337 340 343 347 349 350 350 352 357 361 362 361 362
298 304 307 306 306 306 302 302 304 304 305 317 317 317 320 323 326 329 331 334 337 341 345 348 349 350 351 352 353 358 361 362
294 298 302 302 305 307 307 308 305 301 304 319 318 318 321 322 325 327 329 331 333 338 343 346 349 353 352 352 352 354 359 359
292 295 299 298 300 305 306 301 303 305 307 314 316 318 323 326 329 330 331 330 334 337 341 347 351 357 358 354 353 354 354 356
297 298 298 297 298 301 303 305 301 305 308 313 316 318 324 327 328 328 329 333 332 336 339 346 350 359 359 356 359 357 359 357
293 297 297 295 297 298 299 301 302 306 306 315 315 320 321 322 327 328 330 333 336 338 340 343 348 352 359 359 360 361 361 358
289 294 295 291 296 297 298 301 301 300 308 315 314 316 322 327 326 327 329 332 336 339 342 344 343 351 355 361 360 361 364 362
289 292 283 296 302 303 301 301 303 304 307 311 315 319 321 327 324 324 327 329 331 336 341 344 344 344 352 355 363 363 363 365
286 287 292 294 300 300 299 300 309 305 307 311 315 316 318 323 325 323 325 328 330 333 339 345 347 348 349 355 359 362 363 365
289 285 283 294 300 303 304 295 308 309 308 308 311 308 315 320 321 322 324 327 329 333 341 344 348 351 349 348 358 361 362 365
289 287 291 299 302 302 292 295 305 304 305 306 304 309 314 319 320 321 323 323 328 332 339 348 352 357 356 353 355 362 362 366
290 286 284 301 301 295 302 306 304 304 303 303 306 310 311 316 319 319 320 321 326 326 333 340 354 360 361 358 362 368 367 366
292 292 299 304 302 305 306 303 303 304 306 306 307 309 312 313 317 317 317 318 321 323 328 328 338 354 356 368 369 368 368 367
292 297 300 301 304 304 303 303 303 305 306 305 306 310 310 311 315 316 315 315 318 321 324 324 330 333 341 345 362 365 367 367
291 296 296 300 298 299 300 302 303 304 306 305 306 307 311 311 313 314 312 315 319 320 320 322 325 325 328 331 335 359 359 360
286 291 290 293 298 299 299 300 302 303 305 307 307 307 309 311 312 312 312 316 318 321 321 321 322 321 324 328 327 344 355 356
291 296 295 296 298 300 298 300 301 303 305 306 308 311 310 310 310 310 313 315 319 320 320 321 322 321 323 324 325 328 338 346

GFSFLT2_sfc_thetae_081.txt.gz
Theta_e
302 303 303 298 295 300 292 295 292 295 298 303 306 309 325 322 326 329 335 333 337 339 339 340 340 340 344 343 344 346 346 342
300 302 303 298 302 293 293 286 286 293 295 296 300 304 322 326 327 332 336 335 337 336 340 341 342 341 344 345 344 347 347 345
297 294 294 297 297 296 296 294 290 287 293 303 310 307 316 324 328 332 333 336 338 339 338 334 343 343 342 346 345 346 345 348
291 299 301 298 296 297 293 291 294 293 296 311 313 317 314 323 327 329 332 333 334 336 335 334 333 344 342 347 346 347 347 347
287 291 296 294 297 297 298 294 291 291 295 312 314 313 318 323 326 329 329 329 330 332 334 333 333 344 345 345 347 349 349 347
282 287 292 291 294 296 295 291 293 295 298 307 310 312 317 320 325 328 328 328 328 331 330 333 337 343 345 345 349 350 350 349
290 292 293 292 293 294 293 295 291 294 298 304 310 315 316 319 323 325 328 330 332 334 334 336 340 341 345 347 348 351 351 350
288 293 293 291 293 295 295 296 295 296 301 308 313 315 314 315 318 318 320 323 324 329 335 338 341 342 343 346 348 351 351 351
281 290 290 286 291 293 295 297 297 293 302 308 310 313 313 313 314 316 318 321 320 323 327 330 337 339 334 336 340 349 350 352
282 285 277 288 296 299 298 300 302 303 306 310 311 313 314 315 313 315 317 318 320 321 325 331 337 339 337 337 334 341 348 350
281 282 286 290 297 297 293 295 302 301 303 304 306 310 308 312 314 314 316 317 318 322 325 328 328 334 341 344 344 344 350 349
286 281 279 291 299 302 300 289 302 302 301 301 304 299 301 309 312 313 315 316 316 319 324 326 326 328 332 335 339 337 344 354
284 283 288 295 300 302 286 290 300 301 302 300 298 301 305 309 311 313 315 316 316 318 319 323 325 323 323 327 327 331 334 337
285 284 282 296 298 292 296 299 300 301 301 300 301 303 305 307 309 312 313 315 314 315 317 322 324 320 318 320 323 326 329 332
285 287 295 295 293 297 299 298 298 298 299 300 300 301 303 305 307 310 313 313 314 314 316 319 321 320 316 319 323 324 326 331
287 291 292 293 294 296 297 296 297 298 299 300 299 301 301 304 306 308 311 312 313 313 314 316 318 320 317 320 323 324 325 329
287 291 291 294 294 295 296 297 298 299 299 298 299 299 301 303 305 308 309 313 313 313 314 316 317 317 316 318 322 322 324 328
284 290 291 291 295 296 295 295 296 296 296 298 300 298 300 301 305 309 309 311 312 313 316 315 315 314 314 315 319 320 321 325
291 295 295 296 297 297 295 295 295 296 297 297 300 300 301 301 305 308 310 309 314 316 314 312 312 312 312 313 316 319 320 321

GFSFLT2_sfc_thetae_084.txt.gz
Theta_e
300 300 297 296 290 295 289 289 287 290 296 302 313 313 320 323 327 328 333 334 335 337 337 336 337 338 339 344 342 342 342 342
298 299 298 293 296 291 289 284 283 289 291 293 306 311 316 321 325 330 330 334 336 337 337 338 338 340 340 342 344 343 342 341
294 290 290 292 290 289 291 289 285 285 290 306 308 314 314 319 323 328 330 334 337 338 339 339 339 340 341 340 342 344 344 341
288 295 297 294 290 288 285 287 289 288 291 309 313 316 317 321 324 327 332 335 337 340 339 336 336 339 341 343 341 343 345 344
283 287 291 290 293 289 289 287 287 289 291 312 314 315 317 319 325 328 329 330 330 334 336 336 335 334 339 343 344 343 345 344
278 283 287 287 291 293 287 283 285 287 291 305 311 312 315 317 320 321 324 325 326 329 333 333 336 336 337 340 345 345 345 343
286 290 291 290 291 292 289 288 284 289 292 305 309 310 313 317 318 319 319 320 322 324 334 334 337 341 342 340 344 346 344 344
284 290 290 288 290 292 292 294 296 295 298 307 311 312 312 314 317 317 317 319 321 324 325 329 334 339 339 343 344 347 346 345
279 287 286 281 288 292 294 299 299 296 299 302 309 308 308 310 314 316 317 318 318 321 324 327 329 337 338 336 337 337 345 348
279 281 276 284 293 299 297 298 299 299 300 301 304 306 306 309 310 312 317 316 317 318 323 327 329 328 336 341 339 338 340 343
279 278 283 288 294 294 291 294 299 296 300 301 302 305 303 308 311 311 315 318 316 319 321 323 326 327 329 335 339 339 340 337
280 278 278 286 295 299 298 288 299 300 299 299 300 293 297 305 309 311 313 317 315 317 319 320 324 324 324 324 327 328 329 332
280 279 285 292 296 299 284 286 298 299 297 297 294 298 299 305 305 309 312 315 316 314 315 318 323 320 316 320 320 324 327 331
279 278 279 293 294 288 293 296 297 298 298 296 298 300 301 302 304 307 309 313 315 314 314 316 320 320 316 314 319 322 325 329
282 282 291 292 291 293 293 292 293 294 296 297 296 298 300 300 302 304 307 311 313 314 313 316 319 318 314 315 317 319 323 326
284 287 290 291 293 293 293 292 294 295 296 297 297 297 297 299 301 303 306 309 312 311 313 314 316 318 314 314 316 318 320 324
284 288 288 292 291 293 295 294 294 295 296 295 295 295 296 297 299 301 303 307 312 311 311 314 314 314 314 313 313 315 318 322
281 287 286 287 291 294 293 293 295 293 294 295 295 294 296 296 298 299 300 305 309 310 313 314 313 312 311 311 311 312 316 319
288 291 291 292 294 296 294 295 297 296 296 295 296 297 298 299 300 300 302 304 309 314 313 311 310 308 309 309 310 311 313 317

GFSFLT2_sfc_thetae_087.txt.gz
Theta_e
298 298 295 292 288 292 287 285 286 288 292 301 313 314 317 318 321 324 327 331 334 336 334 333 335 338 340 340 340 342 342 342
296 297 297 292 293 288 287 283 282 287 289 296 308 311 316 320 322 323 326 329 332 336 336 334 335 337 341 342 340 341 343 343
292 290 289 289 287 286 287 287 284 284 292 307 311 312 314 317 322 322 326 328 331 334 337 336 335 337 337 342 341 340 341 342
285 292 295 293 287 285 283 283 285 286 292 309 312 313 315 315 317 321 325 328 334 336 337 337 335 336 336 338 342 341 341 340
281 286 290 287 290 286 285 283 282 283 289 311 312 313 314 313 316 318 322 323 329 333 332 335 335 335 338 338 339 342 342 340
277 280 285 286 289 290 285 282 283 285 287 304 308 309 313 315 316 317 318 321 323 325 327 332 335 336 336 338 342 340 342 342
283 287 289 288 288 289 286 286 283 288 297 300 307 309 311 316 318 316 316 317 321 323 326 328 330 339 341 341 340 343 341 341
281 288 287 285 290 291 292 295 292 294 295 301 308 307 307 309 316 315 315 316 318 322 325 325 327 328 333 337 342 344 342 342
277 285 283 281 287 293 295 295 296 292 297 300 304 302 303 305 307 313 314 315 316 318 321 326 324 325 326 336 338 339 343 343
278 279 275 282 295 298 295 296 296 296 298 300 301 305 305 306 305 308 313 314 315 316 318 322 325 323 324 330 340 338 343 345
278 277 281 288 291 293 289 291 297 296 297 298 301 304 304 303 306 306 309 315 315 316 319 318 323 323 321 322 327 333 338 335
279 278 277 285 292 296 296 284 296 297 295 295 298 294 298 302 304 306 308 312 316 317 316 318 319 321 320 319 320 322 324 328
278 277 284 291 293 295 283 283 295 296 295 294 291 295 298 302 303 305 305 307 313 316 315 315 319 320 318 317 316 320 322 325
277 281 279 293 293 286 289 290 292 293 294 293 295 296 298 299 300 300 303 305 309 312 314 315 317 319 316 313 316 318 320 323
281 281 289 291 289 291 290 289 289 290 292 293 293 295 297 298 299 299 300 303 306 309 312 315 316 316 313 312 314 314 317 321
284 285 289 290 292 292 293 291 292 292 293 294 293 294 295 296 297 298 299 300 303 306 309 312 315 315 314 312 313 313 313 316
282 287 287 290 291 292 293 294 293 294 294 294 294 294 294 294 294 296 298 299 300 302 306 309 314 314 313 312 311 310 312 315
281 287 287 287 291 293 292 293 293 293 294 295 296 294 295 295 296 296 296 298 298 300 304 308 313 312 310 309 308 307 309 312
288 288 289 290 292 293 293 294 294 296 297 296 296 296 296 295 297 299 299 299 299 300 304 308 309 309 309 307 307 305 306 308

GFSFLT2_sfc_thetae_090.txt.gz
Theta_e
296 296 293 290 286 288 285 283 286 287 295 302 314 314 316 317 320 322 325 332 334 335 332 333 337 338 339 340 340 341 341 341
294 296 295 291 291 287 286 282 281 286 293 298 307 310 314 314 317 321 324 329 334 335 335 333 336 338 340 341 340 341 342 342
290 288 286 288 286 286 286 285 283 283 292 307 309 312 312 314 317 321 325 329 330 334 337 336 337 337 339 340 341 341 342 343
283 290 292 290 286 284 285 283 283 287 291 310 312 314 314 313 316 320 323 326 328 332 336 337 336 337 337 340 341 341 342 343
281 285 288 287 289 284 283 282 281 287 291 310 311 312 315 314 314 316 321 323 326 326 329 333 336 337 337 339 342 341 342 341
278 280 284 285 288 288 284 282 282 285 293 302 304 307 309 314 316 315 316 319 322 324 325 327 329 337 339 340 341 343 342 341
282 286 287 287 287 287 285 285 284 287 298 299 305 303 305 308 314 313 314 315 317 320 323 323 324 327 332 339 341 342 341 342
281 287 286 287 291 291 293 294 292 295 293 305 305 304 302 303 306 310 312 314 316 317 320 323 322 323 326 329 338 340 342 341
276 284 283 280 286 293 293 294 294 291 295 301 302 300 300 301 302 304 307 313 314 315 317 321 322 322 321 323 329 340 340 343
277 278 274 281 294 297 294 295 296 296 297 298 298 302 302 302 301 302 305 307 314 314 315 317 323 323 321 321 323 325 332 341
278 276 280 286 291 292 289 291 296 295 296 297 299 301 301 302 302 302 304 306 308 316 316 317 318 323 321 319 319 319 321 325
278 278 277 284 292 295 295 285 295 296 295 294 296 291 297 299 301 303 304 304 306 309 314 316 316 320 320 318 317 316 319 321
278 278 283 290 293 295 284 284 295 295 294 293 291 294 296 298 299 301 303 303 304 305 307 314 316 318 318 318 315 318 319 321
279 281 279 293 292 288 289 292 293 292 293 291 292 294 295 296 297 299 300 302 302 302 303 310 315 317 317 315 316 318 318 319
281 282 289 291 289 292 291 289 290 291 292 292 292 292 293 293 294 295 297 299 301 301 301 304 312 316 316 317 315 315 316 317
283 285 289 291 292 293 292 291 292 292 292 293 291 292 292 294 294 295 296 296 298 299 300 300 305 312 317 317 314 313 313 314
283 286 287 291 291 292 292 294 293 294 294 293 293 292 293 295 295 295 296 297 297 298 298 299 302 305 312 316 313 311 311 313
282 288 287 287 291 293 292 292 294 293 293 294 294 293 296 296 297 297 297 297 297 297 298 299 301 304 309 314 311 309 309 311
289 289 290 291 292 293 292 293 294 294 295 294 297 297 297 296 296 298 298 298 298 298 300 301 302 304 309 311 309 308 308 309

GFSFLT2_sfc_thetae_093.txt.gz
Theta_e
300 301 300 299 299 300 297 295 296 298 304 312 317 318 320 320 322 323 332 331 337 341 341 341 343 346 347 350 353 352 351 355
298 300 301 300 299 297 299 292 292 298 301 303 310 313 316 316 319 323 327 334 334 341 341 342 344 346 348 349 351 353 351 353
298 294 293 298 298 297 299 296 294 293 300 311 311 313 312 313 316 321 325 327 334 339 343 342 343 345 346 347 348 349 351 353
292 296 297 297 294 294 297 295 296 301 299 314 313 313 316 313 314 317 322 325 327 331 332 340 342 343 345 345 346 348 351 353
290 294 296 294 294 295 294 296 296 296 298 311 311 310 311 313 315 316 318 321 323 324 325 326 331 339 343 345 345 346 349 347
290 291 293 291 291 293 294 295 294 297 301 305 305 305 307 311 315 316 318 317 319 322 322 322 324 327 332 344 347 348 348 346
291 292 292 290 290 291 293 294 294 300 300 302 303 304 305 307 311 313 316 316 317 316 320 323 322 322 326 329 339 349 350 348
289 291 292 291 294 294 295 297 300 303 300 304 306 306 307 308 309 308 310 315 317 317 316 318 323 322 323 325 329 341 346 348
286 289 290 287 293 296 297 299 301 300 300 304 302 302 304 305 306 307 308 310 312 316 317 317 319 324 323 323 325 329 329 336
287 288 281 291 300 300 298 299 302 301 302 302 302 304 304 306 306 306 307 307 309 310 313 318 319 321 325 324 324 323 323 325
287 286 287 292 297 298 297 295 301 301 301 302 302 305 304 305 305 304 306 308 309 310 310 313 318 321 323 325 321 322 321 322
288 285 283 291 297 301 301 291 301 302 300 299 299 297 303 303 302 303 305 306 308 309 310 310 313 317 320 322 321 320 320 322
289 287 290 296 297 300 289 293 301 300 298 298 296 299 300 301 302 303 303 304 306 306 307 309 311 313 317 319 320 322 321 322
289 287 284 299 297 294 298 301 300 298 297 296 297 298 299 300 300 301 301 302 303 303 304 306 309 310 312 315 321 323 319 320
292 292 296 300 297 300 300 299 297 298 298 298 297 298 299 300 301 301 302 302 303 302 303 305 308 309 309 313 318 321 321 318
291 295 296 299 299 300 300 298 299 299 299 299 298 300 300 300 301 301 302 302 303 302 302 303 306 307 308 310 314 318 320 320
293 295 295 297 300 301 300 299 299 299 299 299 300 300 301 301 301 302 302 302 303 302 302 302 305 305 307 309 312 315 318 319
294 299 299 297 301 302 300 299 299 299 299 301 301 301 302 302 302 302 301 302 302 303 303 303 304 305 307 309 311 313 315 317
299 301 299 300 300 301 301 301 300 300 301 301 303 303 303 301 302 301 300 299 300 301 302 304 305 305 307 309 311 313 312 314

GFSFLT2_sfc_thetae_096.txt.gz
Theta_e
304 306 306 308 304 309 303 306 301 304 312 318 320 322 324 321 323 326 335 337 338 345 346 347 348 350 353 355 358 360 358 361
302 305 306 307 310 302 303 297 296 301 306 308 313 315 319 318 318 323 328 337 339 341 346 347 349 350 353 356 356 358 358 358
303 301 302 304 304 306 306 304 299 298 303 313 313 315 315 315 317 320 324 328 334 331 341 348 349 348 351 354 355 355 357 358
299 301 302 303 303 305 301 301 304 304 304 315 314 316 316 315 316 317 321 323 327 331 334 338 345 348 350 351 352 354 356 357
296 300 301 300 302 304 305 306 303 300 304 313 313 314 316 315 317 317 318 319 321 324 323 325 329 339 346 349 350 351 354 354
295 297 301 298 297 300 303 301 303 303 304 305 309 310 313 316 317 318 319 319 319 319 321 323 324 324 332 341 349 349 349 352
297 297 297 296 296 296 299 302 301 307 305 306 308 310 313 316 318 317 317 320 322 321 322 323 325 326 324 327 334 345 352 351
294 295 295 295 297 298 298 301 305 307 301 309 311 311 311 312 314 316 316 317 318 320 323 323 324 326 327 326 326 332 341 349
293 294 294 291 297 298 300 303 307 304 307 309 309 310 311 312 312 312 313 314 315 316 317 321 324 327 328 329 327 328 329 336
296 293 286 297 303 302 301 303 308 309 309 311 311 312 312 313 311 311 311 312 314 314 315 316 319 324 328 330 329 326 326 326
291 290 293 295 300 300 300 300 306 308 309 310 310 311 310 311 310 310 311 312 313 315 314 316 317 318 321 327 330 328 327 325
293 289 286 297 302 306 305 296 307 308 308 307 307 303 309 309 308 308 309 310 310 311 312 314 316 317 317 319 325 328 329 328
293 291 295 301 304 306 292 299 308 308 307 305 304 305 305 306 306 307 308 308 309 310 310 312 314 315 315 317 319 325 328 330
295 291 289 304 302 297 305 308 307 306 304 303 303 303 304 305 305 306 307 308 308 308 310 311 313 313 314 315 319 322 323 327
297 298 302 305 304 307 307 306 304 304 303 303 303 304 305 305 306 306 307 308 308 308 309 311 312 313 312 316 317 317 318 321
296 300 301 304 305 306 304 304 304 304 304 304 303 304 304 305 305 306 307 307 308 308 308 309 311 312 313 314 315 315 316 319
298 301 301 304 305 306 305 304 303 304 304 303 303 304 304 304 305 306 307 307 307 307 307 308 311 311 312 313 314 313 314 316
297 301 302 301 306 307 305 304 304 304 303 304 305 304 305 305 307 306 307 307 306 306 306 307 308 309 312 314 313 313 312 314
301 304 304 306 305 306 305 305 305 305 305 303 304 305 306 305 306 306 306 307 306 303 304 304 304 306 311 313 314 312 312 314

GFSFLT2_sfc_thetae_099.txt.gz
Theta_e
310 314 311 311 307 312 306 308 303 308 315 320 324 325 324 322 324 327 336 342 343 343 346 345 348 349 352 359 365 362 361 367
308 311 312 310 314 305 306 300 298 306 310 311 316 318 320 318 319 324 332 339 342 341 343 347 348 349 352 356 361 361 363 362
306 306 306 308 307 309 309 307 301 301 308 320 318 316 318 317 318 321 325 330 336 340 341 347 345 345 351 354 358 360 361 363
302 307 308 309 308 309 303 303 306 305 303 318 320 320 319 317 317 319 322 327 332 334 334 329 332 338 350 343 354 355 359 361
299 303 306 305 308 309 309 309 305 302 304 319 318 319 319 317 317 318 319 321 325 328 329 330 326 329 340 345 343 345 359 358
296 300 304 302 303 306 307 303 305 306 306 312 315 316 316 317 319 320 320 321 321 322 325 326 327 328 327 334 337 344 351 351
302 301 302 302 302 301 303 305 303 310 308 313 317 317 318 319 319 320 320 320 321 321 323 326 330 329 328 327 329 335 347 353
300 300 300 299 301 301 302 304 305 312 307 316 318 321 320 319 318 319 319 319 320 322 323 325 329 330 331 327 329 329 332 337
296 301 299 296 300 302 303 304 306 307 312 315 314 316 317 318 318 317 318 319 319 319 320 321 325 328 329 331 329 330 329 327
296 299 289 300 306 304 303 305 309 315 314 316 315 315 316 318 317 315 315 316 317 318 319 320 321 322 326 331 333 333 330 329
294 294 297 299 302 302 302 303 310 313 313 314 314 315 314 316 316 315 315 316 316 317 316 319 320 321 321 323 329 332 332 332
297 291 290 300 304 307 307 297 310 314 314 313 314 308 311 315 313 312 313 313 314 314 316 317 318 318 319 320 321 325 329 332
295 294 298 305 307 307 295 300 310 312 312 312 309 311 312 312 311 311 311 311 312 314 313 315 317 317 317 319 320 323 325 325
297 294 291 307 305 298 308 312 311 311 312 310 310 309 309 309 309 309 310 310 311 312 312 314 316 316 316 317 321 322 323 323
300 299 308 308 308 312 311 310 310 310 308 309 307 307 307 309 309 309 309 310 311 311 311 313 315 316 314 317 319 319 319 320
301 303 305 306 308 311 310 310 308 308 308 307 306 307 308 309 309 309 309 309 311 310 310 311 314 315 316 317 318 318 317 318
301 304 305 306 308 309 308 308 307 307 307 306 306 306 308 308 309 309 309 310 311 310 309 310 312 313 314 315 316 315 316 316
299 305 305 306 309 310 309 307 307 306 306 307 306 306 307 308 310 309 309 310 309 310 310 310 310 310 312 314 315 314 314 314
305 309 307 309 309 310 309 309 309 307 307 306 308 307 307 307 309 308 309 309 309 308 307 307 307 307 308 312 314 314 313 315

GFSFLT2_sfc_thetae_102.txt.gz
Theta_e
314 316 314 310 307 313 306 307 302 310 315 320 323 323 324 324 327 330 335 341 340 343 343 342 345 344 352 357 360 362 361 364
310 313 313 311 314 304 306 298 298 307 310 311 316 318 319 319 321 325 331 335 340 341 340 347 348 348 352 359 361 363 363 365
309 305 305 307 306 308 308 306 300 302 307 320 319 319 317 318 319 321 326 330 333 336 338 343 344 340 342 347 359 361 363 364
303 309 310 309 308 309 303 303 306 305 305 320 321 321 320 318 317 320 324 328 331 333 333 333 339 340 338 338 342 347 353 361
300 304 307 305 308 309 309 308 304 301 306 320 320 319 319 319 319 318 323 326 328 330 332 332 332 333 337 335 338 345 356 355
295 300 304 302 305 307 306 302 304 307 307 311 314 315 317 320 321 320 320 322 325 327 329 331 331 330 330 333 335 341 346 346
303 304 303 304 303 305 303 305 303 308 309 311 314 316 318 320 320 319 320 320 323 324 326 330 331 330 329 330 331 334 338 339
300 303 302 300 303 303 303 303 311 312 310 318 319 319 318 318 318 318 319 319 320 322 325 325 328 330 328 329 330 331 331 330
295 301 300 296 301 302 303 305 307 308 313 318 315 316 317 318 318 318 318 319 319 319 320 324 324 329 331 330 331 329 330 330
296 299 290 300 307 306 303 305 309 315 316 318 318 318 319 320 318 317 317 317 318 317 318 321 321 322 328 330 336 334 332 330
294 294 298 301 304 302 301 301 314 315 316 316 318 317 314 318 318 318 317 317 317 317 317 320 319 322 324 326 328 332 331 333
297 291 289 299 305 307 306 297 310 316 315 312 313 306 310 316 316 315 315 315 314 314 316 316 317 318 320 321 325 325 326 327
295 294 298 305 307 307 295 300 311 316 316 315 311 312 313 313 313 313 313 312 314 314 314 315 317 318 318 319 319 322 323 326
296 293 290 308 306 300 309 312 312 313 313 309 312 312 311 311 311 311 311 311 312 312 313 314 317 318 317 318 321 322 323 322
300 300 309 309 309 312 313 313 313 313 312 312 310 309 310 310 310 310 310 311 312 311 312 314 317 319 315 320 322 321 321 321
302 306 307 308 310 311 312 311 311 311 310 310 308 309 309 309 309 309 310 310 311 311 310 311 316 316 318 318 318 317 317 318
302 305 306 306 308 309 309 311 310 310 309 308 308 308 309 308 309 309 310 310 311 310 310 311 312 313 313 315 316 314 315 316
299 306 306 307 309 310 309 308 308 308 307 308 308 308 309 308 309 309 310 310 310 311 310 309 309 310 312 312 314 313 312 313
305 310 310 309 311 311 309 309 309 308 308 307 308 308 308 308 309 306 309 309 309 309 309 308 308 308 310 310 311 310 310 312

GFSFLT2_sfc_thetae_105.txt.gz
Theta_e
310 311 309 304 299 305 298 298 294 305 313 320 322 322 324 325 328 329 331 335 340 338 342 341 340 342 345 348 351 354 353 353
309 310 309 303 304 296 296 290 289 302 308 308 313 316 318 319 322 326 330 333 335 338 341 344 343 344 343 344 342 350 353 354
305 300 300 301 298 299 298 296 291 297 301 318 315 315 315 317 320 324 327 331 332 332 334 338 340 339 340 338 335 335 335 344
298 305 305 302 299 299 294 293 300 303 302 320 318 316 316 315 319 323 328 329 331 331 332 333 336 336 337 339 336 335 336 342
294 297 300 297 301 298 298 298 296 296 303 319 318 317 317 315 318 321 324 326 327 327 327 329 331 335 338 335 334 338 342 342
289 293 299 296 300 301 297 293 302 305 306 310 313 313 316 316 317 319 321 323 325 326 325 325 328 330 332 333 336 338 340 339
297 301 301 299 299 301 296 299 301 305 306 310 313 314 316 318 317 316 319 321 322 325 326 324 324 325 326 329 330 334 333 335
294 300 300 297 299 301 300 309 309 309 306 314 315 317 317 316 316 315 314 316 321 320 322 326 325 325 326 327 327 329 330 332
290 298 297 292 296 298 298 300 311 305 309 314 313 314 315 316 316 315 314 314 315 315 315 316 318 325 326 327 328 328 327 329
291 294 284 294 304 302 299 301 312 313 314 315 315 316 317 318 315 314 313 311 310 311 312 313 315 317 320 326 329 327 327 329
287 288 293 298 302 299 297 307 315 313 314 316 317 316 314 317 316 313 311 309 309 312 313 312 312 314 317 319 320 320 321 322
290 286 285 296 302 305 302 299 314 315 314 313 312 304 308 314 313 310 309 309 309 310 311 310 310 313 313 315 315 315 317 318
288 288 295 302 304 305 292 296 309 315 312 311 307 308 310 309 308 308 307 308 309 310 309 309 312 312 311 312 311 314 316 316
289 286 288 306 305 299 303 308 310 311 309 306 305 306 307 308 308 307 306 307 309 307 307 310 311 310 309 310 313 314 314 314
294 295 303 306 305 307 309 307 308 308 308 308 307 307 307 307 307 306 306 306 307 305 306 308 309 310 308 308 310 310 309 310
297 304 303 305 307 308 309 307 308 309 309 308 306 307 306 305 304 304 305 305 306 305 305 305 307 307 306 308 309 308 307 307
296 299 302 305 306 306 306 308 307 307 305 304 305 304 304 304 303 304 304 305 305 304 305 304 305 304 306 306 306 305 306 307
294 302 300 302 305 308 305 304 306 304 304 304 303 303 305 303 304 305 304 304 304 304 303 302 303 303 304 305 304 303 303 306
302 306 305 307 308 309 306 306 306 303 303 302 303 303 304 303 304 306 303 304 303 302 302 302 302 302 303 304 303 302 300 302

GFSFLT2_sfc_thetae_108.txt.gz
Theta_e
307 306 304 299 300 302 297 298 297 306 312 318 321 320 325 325 329 329 332 337 338 341 342 338 339 342 346 348 346 345 349 348
306 306 306 304 305 297 296 289 290 300 306 307 314 318 321 321 323 327 332 335 337 339 339 341 341 344 346 344 340 338 340 343
301 297 298 299 297 298 296 293 289 294 302 317 316 317 316 318 323 325 329 330 332 335 338 338 339 340 338 336 333 332 336 339
295 303 302 300 297 296 292 292 296 298 304 317 317 317 317 319 321 326 328 329 330 332 334 336 336 337 337 335 336 337 339 341
292 295 301 295 298 295 293 293 296 295 303 317 315 314 317 318 322 324 325 326 327 328 330 333 333 336 335 337 337 340 341 340
287 291 296 295 296 297 293 293 299 301 307 311 312 311 314 317 321 323 324 323 323 324 326 329 332 333 334 335 337 339 338 339
297 298 298 298 296 297 297 298 294 304 306 310 312 312 314 317 319 320 322 323 322 320 322 324 326 326 329 330 333 333 334 336
295 299 298 295 297 299 308 308 307 307 306 314 316 316 315 315 317 317 319 320 323 324 323 322 323 324 325 325 326 329 331 334
290 296 294 289 294 294 299 309 309 303 307 314 313 314 314 314 314 314 317 316 315 315 316 317 324 324 324 325 326 326 326 326
290 293 285 294 299 299 302 311 311 310 312 314 315 316 316 316 314 312 310 312 311 310 312 314 316 320 327 327 324 322 321 321
286 288 292 297 300 298 304 305 313 312 313 314 315 315 312 313 311 309 306 308 308 309 309 310 313 315 317 317 317 317 317 317
287 285 285 295 301 305 306 296 313 315 313 312 312 303 305 309 309 307 308 308 308 308 308 310 310 312 311 310 310 311 312 314
285 285 292 299 305 306 292 293 311 315 314 312 308 306 307 307 306 307 308 307 307 308 307 308 309 309 307 308 308 310 312 312
284 283 284 304 304 297 301 305 309 309 306 306 305 305 305 304 304 305 306 306 306 306 306 307 308 308 305 305 307 308 308 309
291 291 299 302 303 305 307 306 306 305 306 307 306 305 305 303 303 304 305 304 305 305 304 305 305 305 303 303 305 306 305 305
294 298 300 301 303 305 306 307 307 307 308 308 306 307 305 305 304 304 302 303 303 303 302 302 302 303 303 303 304 303 302 303
292 296 299 302 302 303 304 305 306 307 306 305 305 304 305 302 301 303 302 302 303 302 301 300 301 302 302 302 301 301 301 303
291 298 297 300 302 304 302 303 303 303 301 303 303 303 302 301 302 303 302 303 301 300 299 299 300 300 300 301 301 299 298 299
298 301 302 302 304 306 301 302 303 302 301 300 302 302 301 301 302 303 302 301 300 300 300 300 299 299 299 299 300 298 296 297

GFSFLT2_sfc_thetae_111.txt.gz
Theta_e
303 303 302 298 297 300 295 293 296 302 311 317 320 320 323 325 328 329 333 335 335 339 339 337 337 342 344 342 341 344 344 345
303 304 303 300 302 294 292 288 289 298 302 307 312 316 320 320 323 326 330 336 337 339 341 340 338 341 347 345 342 341 344 344
299 296 295 298 295 294 294 291 290 292 299 315 315 316 317 321 324 326 329 332 335 338 340 339 339 339 339 337 336 336 339 340
294 300 300 297 295 294 291 290 297 296 302 317 319 318 318 319 324 327 329 330 333 334 337 337 337 336 335 334 334 337 338 339
292 296 297 294 295 292 291 295 295 295 302 316 317 317 319 318 324 325 326 326 328 331 334 334 335 334 335 338 338 338 340 339
287 289 292 292 296 294 291 294 297 301 307 311 312 312 316 320 322 323 322 323 324 326 330 333 333 332 334 337 340 338 338 338
296 296 295 295 295 296 292 295 295 304 306 310 312 313 317 320 321 321 320 320 321 323 325 328 329 331 333 334 335 337 335 337
292 300 296 293 295 297 306 308 306 308 306 314 315 315 317 319 320 320 320 320 321 322 322 323 326 327 328 329 330 333 333 332
286 297 295 290 293 294 305 308 308 303 309 314 312 313 314 316 318 318 317 317 313 314 316 323 324 326 325 326 326 324 323 324
286 291 285 295 300 301 307 309 309 309 312 314 313 314 313 316 316 314 314 311 311 313 315 319 323 321 322 320 318 317 316 316
284 285 292 297 299 297 298 304 312 311 313 313 315 315 312 314 313 311 309 308 308 310 314 315 315 315 314 314 314 314 314 313
284 283 284 294 301 305 304 295 311 314 312 311 311 302 303 308 310 309 309 308 308 310 311 311 309 311 311 310 310 310 311 311
283 283 290 300 304 306 292 292 312 315 313 311 307 305 304 307 308 308 308 307 307 307 307 307 308 307 305 305 305 307 308 309
282 282 283 302 303 296 300 301 309 312 312 307 306 306 303 304 305 305 305 306 307 305 305 305 305 305 303 302 304 306 307 306
288 288 297 300 302 305 307 305 307 306 307 307 307 305 304 303 303 303 303 304 305 304 302 302 303 303 301 301 303 303 304 304
292 296 298 300 302 305 305 305 307 308 308 308 306 307 307 305 304 304 303 303 303 302 300 299 301 302 301 302 302 302 300 301
291 295 297 300 300 303 306 306 307 307 308 308 308 306 305 305 304 303 303 303 302 301 299 299 300 299 299 299 300 299 298 299
290 296 294 296 300 303 305 305 305 305 303 304 305 303 303 303 304 303 303 303 300 299 298 298 299 298 298 299 299 296 296 296
297 299 299 301 302 303 300 301 303 303 305 303 302 302 301 300 301 303 302 301 300 299 298 298 298 298 298 298 298 296 295 295

GFSFLT2_sfc_thetae_114.txt.gz
Theta_e
302 300 303 302 299 300 294 291 295 299 308 316 319 321 323 324 326 327 331 334 334 335 339 337 339 342 342 340 340 344 345 346
301 302 301 300 302 294 291 287 286 298 301 302 314 317 322 324 325 328 331 334 336 337 340 340 339 341 345 342 341 344 346 346
297 295 294 296 294 293 293 291 289 291 297 315 314 318 318 321 323 325 330 332 334 336 340 339 341 343 346 343 340 343 345 346
293 298 298 295 294 292 291 289 294 294 296 316 319 320 320 321 325 326 328 330 334 335 339 338 338 337 336 336 337 338 340 341
291 294 295 292 294 290 290 295 294 292 295 317 319 317 321 322 324 326 326 328 332 334 335 336 335 335 334 337 338 339 340 340
287 288 291 291 294 293 291 291 294 295 304 311 313 313 317 322 324 325 325 326 327 330 333 334 334 335 336 338 337 338 338 338
294 295 295 294 293 294 291 292 294 299 303 310 312 312 319 322 322 321 321 323 324 325 330 331 331 333 334 336 333 335 337 337
292 298 297 293 294 297 305 305 304 305 302 312 313 316 318 320 320 319 319 320 321 323 326 329 330 331 331 330 329 334 331 330
286 293 296 292 292 294 299 308 307 301 305 312 311 315 318 320 320 320 318 315 316 321 323 324 325 327 326 326 326 323 322 322
286 292 286 293 300 308 307 308 309 308 311 312 312 314 317 321 319 316 314 315 317 319 320 319 319 319 319 320 319 316 316 316
285 286 289 296 297 298 299 302 311 310 312 312 314 314 313 319 316 312 311 312 315 317 316 315 314 315 316 317 316 314 313 314
284 283 282 291 301 306 306 292 312 313 311 312 314 305 307 312 312 310 309 311 313 314 313 313 314 313 311 310 311 310 311 312
284 283 289 297 302 304 291 292 311 314 313 312 309 307 306 312 310 310 309 310 311 310 310 309 309 308 306 307 306 308 310 311
282 282 283 300 302 294 297 305 311 313 313 310 307 306 309 308 306 305 306 307 308 307 306 306 307 306 304 304 306 308 309 309
286 286 295 299 300 305 306 307 310 309 308 309 305 306 308 305 303 304 305 305 307 304 303 304 305 305 303 304 305 305 305 305
292 295 297 299 303 306 306 307 309 310 310 309 307 307 306 306 304 305 305 304 303 303 302 301 303 303 303 304 304 303 302 303
291 295 297 300 301 303 306 308 309 310 310 309 308 306 307 306 306 306 305 304 303 302 301 301 301 300 302 302 302 300 300 301
291 296 295 296 300 304 305 306 307 307 306 308 308 307 309 309 306 305 304 304 303 302 302 301 300 300 301 301 300 299 299 299
295 298 298 301 303 303 303 305 306 306 307 305 306 305 306 304 305 306 305 304 303 302 302 300 300 300 300 301 300 299 298 299

GFSFLT2_sfc_thetae_117.txt.gz
Theta_e
307 306 309 307 304 309 304 305 304 309 312 320 322 324 327 330 331 330 335 337 337 340 341 343 343 346 349 350 352 354 354 359
307 308 307 310 311 301 304 298 296 304 308 311 316 321 326 327 329 331 334 337 338 340 343 345 344 347 350 352 352 354 356 357
305 304 303 305 305 304 306 303 299 299 306 320 320 322 324 327 329 331 333 335 338 338 344 346 347 346 351 352 352 352 355 358
301 305 304 304 303 305 301 300 305 305 305 320 323 324 326 326 330 333 334 337 339 339 341 343 344 346 349 353 352 353 354 356
299 302 303 301 302 302 303 309 305 300 304 320 324 323 323 324 328 332 334 336 338 338 340 342 341 339 340 344 346 350 352 352
294 299 301 298 300 301 302 302 304 305 309 315 318 321 321 324 327 327 330 330 333 336 338 337 339 340 340 341 343 345 346 342
300 300 300 299 299 306 301 302 304 308 310 316 319 320 321 325 326 325 325 327 329 331 334 335 336 336 337 338 339 342 341 341
299 301 301 298 300 304 307 307 308 309 311 319 324 324 322 322 322 324 324 325 326 327 330 332 334 334 332 332 333 336 335 338
295 299 300 296 300 302 308 312 312 308 313 320 320 319 320 321 323 323 323 322 324 326 327 330 332 332 329 327 325 325 324 329
296 299 291 300 307 309 309 312 315 315 316 320 319 322 323 327 326 321 320 321 321 319 319 319 320 321 321 319 319 320 319 323
295 293 297 300 302 302 302 302 313 315 317 319 322 322 321 325 321 320 320 319 318 317 316 317 317 318 318 318 316 316 316 319
294 290 288 299 304 309 309 299 315 318 318 319 320 311 309 314 315 315 317 317 315 314 315 315 314 315 314 314 315 314 315 315
294 292 295 302 307 309 297 301 316 320 320 320 319 321 317 313 312 315 317 315 313 313 310 311 312 312 309 310 310 311 315 315
293 291 288 306 308 301 308 313 316 320 321 321 316 319 318 316 310 311 311 312 312 309 308 309 310 310 309 307 310 312 313 312
297 298 304 307 308 314 315 314 318 321 319 316 316 316 316 315 314 310 310 311 311 309 308 308 309 309 306 308 310 310 310 310
301 304 306 307 311 314 314 314 316 320 317 316 314 312 312 311 312 312 313 312 313 311 310 310 311 311 311 310 311 311 309 309
301 304 306 307 309 310 314 316 317 317 316 316 315 312 310 308 311 309 311 312 312 311 310 309 310 310 310 310 310 308 307 308
303 305 306 306 309 310 313 314 316 316 314 315 315 311 311 309 309 308 308 309 310 311 310 309 309 309 309 309 310 309 307 306
307 307 307 307 309 310 310 312 314 316 317 314 315 315 317 314 313 310 310 309 308 307 307 306 307 308 309 309 310 308 307 306

GFSFLT2_sfc_thetae_120.txt.gz
Theta_e
310 311 311 307 305 313 306 309 305 311 314 324 327 328 330 333 336 335 338 336 338 340 345 347 349 351 353 354 358 358 357 361
308 312 311 310 313 303 306 300 299 306 309 313 323 324 329 331 334 337 338 336 339 342 345 348 349 351 354 356 357 358 357 358
310 307 305 306 306 307 308 306 301 301 307 324 324 327 329 332 335 337 338 340 339 344 347 348 349 350 352 355 356 356 357 357
305 310 311 311 308 309 302 303 307 306 308 326 328 328 332 333 336 338 339 340 340 343 346 349 349 349 351 355 355 356 357 358
302 306 308 307 308 309 309 309 305 302 305 327 329 329 332 333 334 337 337 339 341 343 345 346 348 351 352 354 355 356 358 356
299 303 308 304 305 307 307 303 304 306 309 321 326 327 330 331 331 334 336 339 339 341 344 345 347 347 349 352 354 355 356 355
305 304 304 304 304 306 306 307 304 306 309 314 325 328 329 329 329 330 332 333 337 339 341 343 344 345 346 349 349 350 349 350
302 304 304 302 304 307 307 308 309 310 311 324 329 332 327 328 329 331 332 333 335 337 338 339 338 340 341 340 341 346 345 345
299 304 303 300 303 305 308 313 312 309 318 325 326 324 326 327 329 329 330 333 334 337 337 338 336 332 328 327 333 333 336 344
299 303 294 305 310 309 308 312 318 317 319 322 326 326 326 329 327 327 330 329 325 324 323 326 332 332 331 325 325 324 325 328
297 297 301 303 307 307 306 306 312 312 319 324 324 323 323 330 332 332 328 324 320 319 319 320 324 330 328 327 321 324 321 322
301 295 292 304 308 311 311 302 315 318 320 320 321 313 317 327 330 329 324 321 318 317 315 314 316 321 320 316 320 319 321 319
299 296 299 307 310 311 300 305 317 321 323 322 318 323 326 326 324 327 324 319 319 314 311 312 314 314 312 315 313 315 317 318
298 296 293 311 310 304 314 317 317 322 325 325 323 325 323 318 320 316 315 315 314 312 311 311 313 312 310 311 314 315 316 315
300 302 312 314 314 317 320 320 320 323 326 325 325 322 317 315 314 315 317 317 314 310 309 313 312 313 311 312 315 314 315 315
304 308 310 313 316 317 322 322 321 326 326 325 324 323 321 320 317 312 312 312 315 310 309 309 311 312 313 314 315 317 315 315
306 311 311 313 315 316 320 323 323 324 325 325 324 322 321 318 315 313 312 313 312 310 310 310 311 311 312 313 315 314 314 314
303 313 313 314 315 317 317 319 321 322 322 325 324 320 318 315 312 309 311 312 314 314 313 311 312 313 314 315 317 315 313 312
311 315 313 315 316 316 316 318 319 321 322 322 322 321 319 317 317 312 310 312 311 314 314 314 312 312 315 315 316 314 312 312